Wetterdaten: Sonntag, 08.07.2018
Datum Zeit Temp. Aussen Temp. o. S. +5cm Feuchte Auss Luftdruck Regen Sonnenschein Regendauer Solar Windben Empfang
08.07.2018 00:00 18,4 C 16,7 C 17,2 C 64 % 1021,0 hPa 0,0 l/m 0 min 0 min 0 W/m 6,8 km/h (2 Bft) 97,87 %
08.07.2018 00:02 18,3 C 16,7 C 17,2 C 64 % 1021,0 hPa 0,0 l/m 0 min 0 min 0 W/m 6,8 km/h (2 Bft) 93,94 %
08.07.2018 00:04 18,3 C 16,7 C 17,2 C 64 % 1021,0 hPa 0,0 l/m 0 min 0 min 0 W/m 6,8 km/h (2 Bft) 97,87 %
08.07.2018 00:08 18,3 C 16,7 C 17,2 C 65 % 1021,1 hPa 0,0 l/m 0 min 0 min 0 W/m 4,5 km/h (1 Bft) 97,87 %
08.07.2018 00:10 18,2 C 17,2 C 17,2 C 65 % 1021,1 hPa 0,0 l/m 0 min 0 min 0 W/m 9,0 km/h (2 Bft) 95,74 %
08.07.2018 00:12 18,2 C 16,7 C 17,2 C 65 % 1021,1 hPa 0,0 l/m 0 min 0 min 0 W/m 6,8 km/h (2 Bft) 95,92 %
08.07.2018 00:14 18,2 C 16,7 C 17,2 C 65 % 1021,1 hPa 0,0 l/m 0 min 0 min 0 W/m 11,3 km/h (2 Bft) 93,75 %
08.07.2018 00:16 18,2 C 16,7 C 17,2 C 65 % 1021,2 hPa 0,0 l/m 0 min 0 min 0 W/m 6,8 km/h (2 Bft) 95,65 %
08.07.2018 00:18 18,1 C 16,7 C 17,2 C 65 % 1021,2 hPa 0,0 l/m 0 min 0 min 0 W/m 4,5 km/h (1 Bft) 95,74 %
08.07.2018 00:20 18,1 C 16,7 C 17,2 C 65 % 1021,2 hPa 0,0 l/m 0 min 0 min 0 W/m 4,5 km/h (1 Bft) 95,74 %
08.07.2018 00:22 18,1 C 16,7 C 17,2 C 65 % 1021,2 hPa 0,0 l/m 0 min 0 min 0 W/m 4,5 km/h (1 Bft) 95,83 %
08.07.2018 00:24 18,1 C 16,7 C 17,2 C 66 % 1021,2 hPa 0,0 l/m 0 min 0 min 0 W/m 2,3 km/h (1 Bft) 95,83 %
08.07.2018 00:26 18,1 C 16,7 C 17,2 C 65 % 1021,2 hPa 0,0 l/m 0 min 0 min 0 W/m 4,5 km/h (1 Bft) 93,62 %
08.07.2018 00:28 18,0 C 16,7 C 16,7 C 66 % 1021,2 hPa 0,0 l/m 0 min 0 min 0 W/m 4,5 km/h (1 Bft) 93,48 %
08.07.2018 00:30 17,9 C 16,7 C 16,7 C 66 % 1021,3 hPa 0,0 l/m 0 min 0 min 0 W/m 6,8 km/h (2 Bft) 93,62 %
08.07.2018 00:32 17,9 C 16,7 C 16,7 C 66 % 1021,2 hPa 0,0 l/m 0 min 0 min 0 W/m 6,8 km/h (2 Bft) 93,75 %
08.07.2018 00:34 17,9 C 16,7 C 16,7 C 66 % 1021,2 hPa 0,0 l/m 0 min 0 min 0 W/m 6,8 km/h (2 Bft) 93,62 %
08.07.2018 00:36 17,8 C 16,1 C 16,7 C 66 % 1021,2 hPa 0,0 l/m 0 min 0 min 0 W/m 4,5 km/h (1 Bft) 91,49 %
08.07.2018 00:38 17,8 C 16,1 C 16,7 C 66 % 1021,2 hPa 0,0 l/m 0 min 0 min 0 W/m 4,5 km/h (1 Bft) 93,62 %
08.07.2018 00:40 17,8 C 16,1 C 16,7 C 67 % 1021,2 hPa 0,0 l/m 0 min 0 min 0 W/m 2,3 km/h (1 Bft) 93,62 %
08.07.2018 00:42 17,7 C 16,1 C 16,7 C 67 % 1021,2 hPa 0,0 l/m 0 min 0 min 0 W/m 2,3 km/h (1 Bft) 91,49 %
08.07.2018 00:44 17,7 C 16,1 C 16,7 C 67 % 1021,2 hPa 0,0 l/m 0 min 0 min 0 W/m 0,0 km/h (0 Bft) 93,48 %
08.07.2018 00:46 17,7 C 16,1 C 16,7 C 67 % 1021,2 hPa 0,0 l/m 0 min 0 min 0 W/m 4,5 km/h (1 Bft) 95,74 %
08.07.2018 00:48 17,6 C 16,1 C 16,7 C 67 % 1021,2 hPa 0,0 l/m 0 min 0 min 0 W/m 4,5 km/h (1 Bft) 97,87 %
08.07.2018 00:50 17,6 C 16,1 C 16,7 C 68 % 1021,3 hPa 0,0 l/m 0 min 0 min 0 W/m 4,5 km/h (1 Bft) 95,74 %
08.07.2018 00:52 17,6 C 16,1 C 16,7 C 68 % 1021,2 hPa 0,0 l/m 0 min 0 min 0 W/m 4,5 km/h (1 Bft) 95,74 %
08.07.2018 00:54 17,5 C 16,1 C 16,7 C 68 % 1021,2 hPa 0,0 l/m 0 min 0 min 0 W/m 4,5 km/h (1 Bft) 93,62 %
08.07.2018 00:56 17,5 C 16,1 C 16,7 C 68 % 1021,2 hPa 0,0 l/m 0 min 0 min 0 W/m 4,5 km/h (1 Bft) 95,65 %
08.07.2018 00:58 17,4 C 16,1 C 16,7 C 69 % 1021,2 hPa 0,0 l/m 0 min 0 min 0 W/m 4,5 km/h (1 Bft) 95,74 %
08.07.2018 01:00 17,4 C 16,1 C 16,7 C 69 % 1021,2 hPa 0,0 l/m 0 min 0 min 0 W/m 2,3 km/h (1 Bft) 95,74 %
08.07.2018 01:02 17,4 C 16,1 C 16,7 C 69 % 1021,2 hPa 0,0 l/m 0 min 0 min 0 W/m 4,5 km/h (1 Bft) 97,67 %
08.07.2018 01:04 17,4 C 16,1 C 16,7 C 69 % 1021,2 hPa 0,0 l/m 0 min 0 min 0 W/m 4,5 km/h (1 Bft) 97,96 %
08.07.2018 01:06 17,3 C 16,1 C 16,7 C 69 % 1021,3 hPa 0,0 l/m 0 min 0 min 0 W/m 2,3 km/h (1 Bft) 93,62 %
08.07.2018 01:08 17,3 C 16,1 C 16,7 C 70 % 1021,3 hPa 0,0 l/m 0 min 0 min 0 W/m 2,3 km/h (1 Bft) 95,74 %
08.07.2018 01:10 17,3 C 15,6 C 16,7 C 69 % 1021,2 hPa 0,0 l/m 0 min 0 min 0 W/m 2,3 km/h (1 Bft) 97,87 %
08.07.2018 01:12 17,3 C 15,6 C 16,7 C 70 % 1021,2 hPa 0,0 l/m 0 min 0 min 0 W/m 2,3 km/h (1 Bft) 95,83 %
08.07.2018 01:14 17,2 C 15,6 C 16,1 C 70 % 1021,3 hPa 0,0 l/m 0 min 0 min 0 W/m 4,5 km/h (1 Bft) 97,87 %
08.07.2018 01:16 17,2 C 15,6 C 16,1 C 70 % 1021,3 hPa 0,0 l/m 0 min 0 min 0 W/m 2,3 km/h (1 Bft) 95,74 %
08.07.2018 01:18 17,2 C 15,6 C 16,1 C 70 % 1021,2 hPa 0,0 l/m 0 min 0 min 0 W/m 4,5 km/h (1 Bft) 97,87 %
08.07.2018 01:20 17,2 C 15,6 C 16,1 C 70 % 1021,2 hPa 0,0 l/m 0 min 0 min 0 W/m 2,3 km/h (1 Bft) 97,83 %
08.07.2018 01:22 17,1 C 15,6 C 16,1 C 70 % 1021,2 hPa 0,0 l/m 0 min 0 min 0 W/m 2,3 km/h (1 Bft) 97,87 %
08.07.2018 01:24 17,1 C 15,6 C 16,1 C 71 % 1021,2 hPa 0,0 l/m 0 min 0 min 0 W/m 0,0 km/h (0 Bft) 97,87 %
08.07.2018 01:26 17,1 C 15,6 C 16,1 C 71 % 1021,2 hPa 0,0 l/m 0 min 0 min 0 W/m 4,5 km/h (1 Bft) 97,87 %
08.07.2018 01:28 17,0 C 15,6 C 16,1 C 71 % 1021,2 hPa 0,0 l/m 0 min 0 min 0 W/m 4,5 km/h (1 Bft) 97,87 %
08.07.2018 01:30 17,0 C 15,6 C 16,1 C 71 % 1021,2 hPa 0,0 l/m 0 min 0 min 0 W/m 4,5 km/h (1 Bft) 97,87 %
08.07.2018 01:32 16,9 C 15,6 C 16,1 C 71 % 1021,2 hPa 0,0 l/m 0 min 0 min 0 W/m 0,0 km/h (0 Bft) 97,83 %
08.07.2018 01:34 16,9 C 15,0 C 16,1 C 71 % 1021,2 hPa 0,0 l/m 0 min 0 min 0 W/m 0,0 km/h (0 Bft) 97,87 %
08.07.2018 01:36 16,9 C 15,0 C 15,6 C 71 % 1021,2 hPa 0,0 l/m 0 min 0 min 0 W/m 0,0 km/h (0 Bft) 97,87 %
08.07.2018 01:38 16,9 C 15,0 C 15,6 C 71 % 1021,2 hPa 0,0 l/m 0 min 0 min 0 W/m 0,0 km/h (0 Bft) 97,87 %
08.07.2018 01:40 16,9 C 15,0 C 15,6 C 72 % 1021,2 hPa 0,0 l/m 0 min 0 min 0 W/m 2,3 km/h (1 Bft) 97,87 %
08.07.2018 01:42 16,8 C 15,0 C 16,1 C 72 % 1021,1 hPa 0,0 l/m 0 min 0 min 0 W/m 2,3 km/h (1 Bft) 97,83 %
08.07.2018 01:44 16,8 C 15,0 C 16,1 C 72 % 1021,2 hPa 0,0 l/m 0 min 0 min 0 W/m 4,5 km/h (1 Bft) 97,87 %
08.07.2018 01:46 16,8 C 15,0 C 15,6 C 72 % 1021,2 hPa 0,0 l/m 0 min 0 min 0 W/m 0,0 km/h (0 Bft) 97,87 %
08.07.2018 01:48 16,7 C 15,6 C 15,6 C 72 % 1021,2 hPa 0,0 l/m 0 min 0 min 0 W/m 4,5 km/h (1 Bft) 97,87 %
08.07.2018 01:50 16,7 C 15,6 C 15,6 C 73 % 1021,2 hPa 0,0 l/m 0 min 0 min 0 W/m 2,3 km/h (1 Bft) 100,00 %
08.07.2018 01:52 16,7 C 15,6 C 15,6 C 73 % 1021,2 hPa 0,0 l/m 0 min 0 min 0 W/m 2,3 km/h (1 Bft) 97,87 %
08.07.2018 01:54 16,6 C 15,0 C 15,6 C 73 % 1021,2 hPa 0,0 l/m 0 min 0 min 0 W/m 2,3 km/h (1 Bft) 100,00 %
08.07.2018 01:56 16,6 C 15,6 C 15,6 C 73 % 1021,2 hPa 0,0 l/m 0 min 0 min 0 W/m 0,0 km/h (0 Bft) 97,87 %
08.07.2018 01:58 16,6 C 15,6 C 15,6 C 73 % 1021,2 hPa 0,0 l/m 0 min 0 min 0 W/m 0,0 km/h (0 Bft) 100,00 %
08.07.2018 02:00 16,6 C 15,0 C 15,6 C 73 % 1021,2 hPa 0,0 l/m 0 min 0 min 0 W/m 2,3 km/h (1 Bft) 100,00 %
08.07.2018 02:02 16,5 C 15,0 C 15,6 C 73 % 1021,2 hPa 0,0 l/m 0 min 0 min 0 W/m 0,0 km/h (0 Bft) 97,56 %
08.07.2018 02:04 16,5 C 15,0 C 15,6 C 73 % 1021,2 hPa 0,0 l/m 0 min 0 min 0 W/m 0,0 km/h (0 Bft) 100,00 %
08.07.2018 02:06 16,5 C 15,0 C 15,6 C 73 % 1021,2 hPa 0,0 l/m 0 min 0 min 0 W/m 2,3 km/h (1 Bft) 97,87 %
08.07.2018 02:08 16,4 C 15,0 C 15,6 C 73 % 1021,2 hPa 0,0 l/m 0 min 0 min 0 W/m 0,0 km/h (0 Bft) 100,00 %
08.07.2018 02:10 16,4 C 15,0 C 15,6 C 73 % 1021,2 hPa 0,0 l/m 0 min 0 min 0 W/m 0,0 km/h (0 Bft) 100,00 %
08.07.2018 02:12 16,4 C 15,0 C 15,6 C 74 % 1021,2 hPa 0,0 l/m 0 min 0 min 0 W/m 0,0 km/h (0 Bft) 97,87 %
08.07.2018 02:14 16,4 C 15,0 C 15,6 C 74 % 1021,2 hPa 0,0 l/m 0 min 0 min 0 W/m 0,0 km/h (0 Bft) 100,00 %
08.07.2018 02:16 16,3 C 15,0 C 15,6 C 74 % 1021,3 hPa 0,0 l/m 0 min 0 min 0 W/m 2,3 km/h (1 Bft) 97,87 %
08.07.2018 02:18 16,3 C 15,0 C 15,6 C 74 % 1021,3 hPa 0,0 l/m 0 min 0 min 0 W/m 2,3 km/h (1 Bft) 100,00 %
08.07.2018 02:20 16,3 C 15,0 C 15,6 C 74 % 1021,3 hPa 0,0 l/m 0 min 0 min 0 W/m 0,0 km/h (0 Bft) 100,00 %
08.07.2018 02:22 16,3 C 15,0 C 15,6 C 74 % 1021,3 hPa 0,0 l/m 0 min 0 min 0 W/m 0,0 km/h (0 Bft) 100,00 %
08.07.2018 02:24 16,2 C 15,0 C 15,6 C 74 % 1021,3 hPa 0,0 l/m 0 min 0 min 0 W/m 0,0 km/h (0 Bft) 97,87 %
08.07.2018 02:26 16,2 C 15,0 C 15,6 C 74 % 1021,2 hPa 0,0 l/m 0 min 0 min 0 W/m 0,0 km/h (0 Bft) 97,83 %
08.07.2018 02:28 16,2 C 15,0 C 15,6 C 74 % 1021,2 hPa 0,0 l/m 0 min 0 min 0 W/m 0,0 km/h (0 Bft) 100,00 %
08.07.2018 02:30 16,2 C 15,0 C 15,0 C 74 % 1021,2 hPa 0,0 l/m 0 min 0 min 0 W/m 0,0 km/h (0 Bft) 100,00 %
08.07.2018 02:32 16,2 C 15,0 C 15,0 C 74 % 1021,2 hPa 0,0 l/m 0 min 0 min 0 W/m 2,3 km/h (1 Bft) 95,74 %
08.07.2018 02:34 16,1 C 15,0 C 15,0 C 74 % 1021,2 hPa 0,0 l/m 0 min 0 min 0 W/m 2,3 km/h (1 Bft) 97,92 %
08.07.2018 02:36 16,1 C 15,0 C 15,0 C 75 % 1021,2 hPa 0,0 l/m 0 min 0 min 0 W/m 0,0 km/h (0 Bft) 97,83 %
08.07.2018 02:38 16,1 C 14,4 C 15,0 C 75 % 1021,2 hPa 0,0 l/m 0 min 0 min 0 W/m 0,0 km/h (0 Bft) 97,87 %
08.07.2018 02:40 16,1 C 14,4 C 15,0 C 75 % 1021,2 hPa 0,0 l/m 0 min 0 min 0 W/m 0,0 km/h (0 Bft) 97,87 %
08.07.2018 02:42 16,1 C 14,4 C 15,0 C 75 % 1021,2 hPa 0,0 l/m 0 min 0 min 0 W/m 0,0 km/h (0 Bft) 97,87 %
08.07.2018 02:44 16,0 C 14,4 C 15,0 C 75 % 1021,2 hPa 0,0 l/m 0 min 0 min 0 W/m 0,0 km/h (0 Bft) 97,92 %
08.07.2018 02:46 16,0 C 14,4 C 15,0 C 75 % 1021,2 hPa 0,0 l/m 0 min 0 min 0 W/m 0,0 km/h (0 Bft) 95,74 %
08.07.2018 02:48 16,0 C 14,4 C 15,0 C 76 % 1021,2 hPa 0,0 l/m 0 min 0 min 0 W/m 0,0 km/h (0 Bft) 97,83 %
08.07.2018 02:50 15,9 C 13,9 C 15,0 C 76 % 1021,2 hPa 0,0 l/m 0 min 0 min 0 W/m 0,0 km/h (0 Bft) 97,87 %
08.07.2018 02:52 15,9 C 13,9 C 14,4 C 76 % 1021,3 hPa 0,0 l/m 0 min 0 min 0 W/m 0,0 km/h (0 Bft) 97,87 %
08.07.2018 02:54 15,9 C 13,9 C 14,4 C 76 % 1021,3 hPa 0,0 l/m 0 min 0 min 0 W/m 0,0 km/h (0 Bft) 97,87 %
08.07.2018 02:56 15,8 C 13,9 C 14,4 C 76 % 1021,3 hPa 0,0 l/m 0 min 0 min 0 W/m 0,0 km/h (0 Bft) 97,87 %
08.07.2018 02:58 15,8 C 13,9 C 14,4 C 76 % 1021,3 hPa 0,0 l/m 0 min 0 min 0 W/m 0,0 km/h (0 Bft) 95,74 %
08.07.2018 03:00 15,8 C 13,9 C 14,4 C 76 % 1021,2 hPa 0,0 l/m 0 min 0 min 0 W/m 0,0 km/h (0 Bft) 95,65 %
08.07.2018 03:02 15,7 C 13,9 C 13,9 C 76 % 1021,3 hPa 0,0 l/m 0 min 0 min 0 W/m 0,0 km/h (0 Bft) 95,74 %
08.07.2018 03:04 15,7 C 13,9 C 13,9 C 77 % 1021,3 hPa 0,0 l/m 0 min 0 min 0 W/m 0,0 km/h (0 Bft) 98,00 %
08.07.2018 03:06 15,6 C 13,3 C 13,9 C 77 % 1021,4 hPa 0,0 l/m 0 min 0 min 0 W/m 0,0 km/h (0 Bft) 97,87 %
08.07.2018 03:08 15,6 C 13,9 C 13,9 C 77 % 1021,4 hPa 0,0 l/m 0 min 0 min 0 W/m 0,0 km/h (0 Bft) 97,87 %
08.07.2018 03:10 15,6 C 13,3 C 13,9 C 77 % 1021,3 hPa 0,0 l/m 0 min 0 min 0 W/m 0,0 km/h (0 Bft) 97,83 %
08.07.2018 03:12 15,5 C 13,3 C 13,9 C 77 % 1021,5 hPa 0,0 l/m 0 min 0 min 0 W/m 0,0 km/h (0 Bft) 97,87 %
08.07.2018 03:14 15,4 C 13,3 C 13,9 C 78 % 1021,3 hPa 0,0 l/m 0 min 0 min 0 W/m 0,0 km/h (0 Bft) 100,00 %
08.07.2018 03:16 15,4 C 13,3 C 13,9 C 78 % 1021,4 hPa 0,0 l/m 0 min 0 min 0 W/m 0,0 km/h (0 Bft) 100,00 %
08.07.2018 03:18 15,3 C 13,3 C 13,9 C 78 % 1021,4 hPa 0,0 l/m 0 min 0 min 0 W/m 0,0 km/h (0 Bft) 97,87 %
08.07.2018 03:20 15,3 C 13,3 C 14,4 C 78 % 1021,4 hPa 0,0 l/m 0 min 0 min 0 W/m 0,0 km/h (0 Bft) 100,00 %
08.07.2018 03:22 15,2 C 13,3 C 14,4 C 78 % 1021,4 hPa 0,0 l/m 0 min 0 min 0 W/m 0,0 km/h (0 Bft) 100,00 %
08.07.2018 03:24 15,2 C 13,3 C 14,4 C 78 % 1021,4 hPa 0,0 l/m 0 min 0 min 0 W/m 0,0 km/h (0 Bft) 97,87 %
08.07.2018 03:26 15,1 C 13,3 C 14,4 C 78 % 1021,4 hPa 0,0 l/m 0 min 0 min 0 W/m 0,0 km/h (0 Bft) 97,87 %
08.07.2018 03:28 15,1 C 13,3 C 14,4 C 78 % 1021,4 hPa 0,0 l/m 0 min 0 min 0 W/m 0,0 km/h (0 Bft) 97,87 %
08.07.2018 03:30 15,0 C 12,8 C 14,4 C 79 % 1021,4 hPa 0,0 l/m 0 min 0 min 0 W/m 0,0 km/h (0 Bft) 97,87 %
08.07.2018 03:32 14,9 C 12,8 C 14,4 C 79 % 1021,4 hPa 0,0 l/m 0 min 0 min 0 W/m 0,0 km/h (0 Bft) 97,87 %
08.07.2018 03:34 14,9 C 12,8 C 14,4 C 79 % 1021,5 hPa 0,0 l/m 0 min 0 min 0 W/m 0,0 km/h (0 Bft) 97,83 %
08.07.2018 03:36 14,8 C 12,8 C 13,9 C 79 % 1021,5 hPa 0,0 l/m 0 min 0 min 0 W/m 0,0 km/h (0 Bft) 97,87 %
08.07.2018 03:38 14,8 C 12,8 C 13,9 C 79 % 1021,5 hPa 0,0 l/m 0 min 0 min 0 W/m 0,0 km/h (0 Bft) 97,87 %
08.07.2018 03:40 14,7 C 12,8 C 13,9 C 79 % 1021,5 hPa 0,0 l/m 0 min 0 min 0 W/m 0,0 km/h (0 Bft) 97,87 %
08.07.2018 03:42 14,7 C 12,8 C 13,9 C 80 % 1021,5 hPa 0,0 l/m 0 min 0 min 0 W/m 0,0 km/h (0 Bft) 97,87 %
08.07.2018 03:44 14,7 C 12,8 C 13,9 C 80 % 1021,5 hPa 0,0 l/m 0 min 0 min 0 W/m 0,0 km/h (0 Bft) 97,87 %
08.07.2018 03:46 14,6 C 12,8 C 13,9 C 80 % 1021,6 hPa 0,0 l/m 0 min 0 min 0 W/m 0,0 km/h (0 Bft) 95,74 %
08.07.2018 03:48 14,6 C 12,8 C 13,3 C 80 % 1021,6 hPa 0,0 l/m 0 min 0 min 0 W/m 0,0 km/h (0 Bft) 97,87 %
08.07.2018 03:50 14,5 C 12,8 C 13,9 C 80 % 1021,6 hPa 0,0 l/m 0 min 0 min 0 W/m 0,0 km/h (0 Bft) 95,74 %
08.07.2018 03:52 14,4 C 12,8 C 13,9 C 80 % 1021,6 hPa 0,0 l/m 0 min 0 min 0 W/m 0,0 km/h (0 Bft) 97,83 %
08.07.2018 03:54 14,4 C 12,2 C 13,3 C 80 % 1021,6 hPa 0,0 l/m 0 min 0 min 0 W/m 0,0 km/h (0 Bft) 95,74 %
08.07.2018 03:56 14,4 C 12,2 C 13,9 C 80 % 1021,6 hPa 0,0 l/m 0 min 0 min 0 W/m 0,0 km/h (0 Bft) 97,87 %
08.07.2018 03:58 14,3 C 12,2 C 13,9 C 81 % 1021,6 hPa 0,0 l/m 0 min 0 min 0 W/m 0,0 km/h (0 Bft) 97,87 %
08.07.2018 04:00 14,3 C 12,2 C 13,3 C 81 % 1021,6 hPa 0,0 l/m 0 min 0 min 0 W/m 0,0 km/h (0 Bft) 95,74 %
08.07.2018 04:02 14,2 C 12,2 C 13,3 C 81 % 1021,7 hPa 0,0 l/m 0 min 0 min 0 W/m 0,0 km/h (0 Bft) 96,43 %
08.07.2018 04:04 14,2 C 12,2 C 13,3 C 81 % 1021,7 hPa 0,0 l/m 0 min 0 min 0 W/m 0,0 km/h (0 Bft) 95,74 %
08.07.2018 04:06 14,2 C 12,2 C 13,3 C 81 % 1021,7 hPa 0,0 l/m 0 min 0 min 0 W/m 0,0 km/h (0 Bft) 93,62 %
08.07.2018 04:08 14,2 C 12,8 C 13,3 C 81 % 1021,7 hPa 0,0 l/m 0 min 0 min 0 W/m 0,0 km/h (0 Bft) 97,87 %
08.07.2018 04:10 14,2 C 12,2 C 13,3 C 82 % 1021,7 hPa 0,0 l/m 0 min 0 min 0 W/m 0,0 km/h (0 Bft) 97,87 %
08.07.2018 04:12 14,2 C 12,2 C 13,3 C 82 % 1021,7 hPa 0,0 l/m 0 min 0 min 0 W/m 0,0 km/h (0 Bft) 97,87 %
08.07.2018 04:14 14,2 C 12,8 C 13,3 C 82 % 1021,7 hPa 0,0 l/m 0 min 0 min 0 W/m 0,0 km/h (0 Bft) 97,83 %
08.07.2018 04:16 14,1 C 12,8 C 13,3 C 82 % 1021,7 hPa 0,0 l/m 0 min 0 min 0 W/m 0,0 km/h (0 Bft) 97,87 %
08.07.2018 04:18 14,1 C 12,8 C 13,3 C 82 % 1021,8 hPa 0,0 l/m 0 min 0 min 0 W/m 0,0 km/h (0 Bft) 97,87 %
08.07.2018 04:20 14,0 C 12,8 C 13,3 C 82 % 1021,8 hPa 0,0 l/m 0 min 0 min 0 W/m 0,0 km/h (0 Bft) 97,87 %
08.07.2018 04:22 14,0 C 12,8 C 13,3 C 82 % 1021,8 hPa 0,0 l/m 0 min 0 min 0 W/m 0,0 km/h (0 Bft) 95,83 %
08.07.2018 04:24 13,9 C 12,8 C 13,3 C 82 % 1021,8 hPa 0,0 l/m 0 min 0 min 0 W/m 0,0 km/h (0 Bft) 97,87 %
08.07.2018 04:26 13,9 C 12,8 C 13,3 C 82 % 1021,8 hPa 0,0 l/m 0 min 0 min 0 W/m 0,0 km/h (0 Bft) 100,00 %
08.07.2018 04:28 13,9 C 12,8 C 13,3 C 82 % 1021,9 hPa 0,0 l/m 0 min 0 min 0 W/m 0,0 km/h (0 Bft) 100,00 %
08.07.2018 04:30 13,9 C 12,8 C 13,3 C 82 % 1021,8 hPa 0,0 l/m 0 min 0 min 0 W/m 0,0 km/h (0 Bft) 97,87 %
08.07.2018 04:32 13,9 C 12,8 C 13,3 C 83 % 1021,9 hPa 0,0 l/m 0 min 0 min 0 W/m 0,0 km/h (0 Bft) 100,00 %
08.07.2018 04:34 13,8 C 12,8 C 13,3 C 83 % 1021,9 hPa 0,0 l/m 0 min 0 min 0 W/m 0,0 km/h (0 Bft) 97,87 %
08.07.2018 04:36 13,8 C 12,8 C 13,3 C 83 % 1021,9 hPa 0,0 l/m 0 min 0 min 0 W/m 0,0 km/h (0 Bft) 100,00 %
08.07.2018 04:38 13,8 C 12,8 C 13,3 C 83 % 1021,9 hPa 0,0 l/m 0 min 0 min 0 W/m 0,0 km/h (0 Bft) 100,00 %
08.07.2018 04:40 13,8 C 12,8 C 13,3 C 83 % 1021,9 hPa 0,0 l/m 0 min 0 min 0 W/m 0,0 km/h (0 Bft) 97,87 %
08.07.2018 04:42 13,8 C 12,8 C 13,3 C 83 % 1021,9 hPa 0,0 l/m 0 min 0 min 0 W/m 0,0 km/h (0 Bft) 95,74 %
08.07.2018 04:44 13,8 C 12,8 C 13,3 C 83 % 1021,9 hPa 0,0 l/m 0 min 0 min 0 W/m 0,0 km/h (0 Bft) 100,00 %
08.07.2018 04:46 13,7 C 12,8 C 13,3 C 83 % 1021,9 hPa 0,0 l/m 0 min 0 min 0 W/m 0,0 km/h (0 Bft) 100,00 %
08.07.2018 04:48 13,7 C 12,8 C 13,3 C 83 % 1021,9 hPa 0,0 l/m 0 min 0 min 0 W/m 0,0 km/h (0 Bft) 100,00 %
08.07.2018 04:50 13,7 C 12,8 C 13,3 C 83 % 1021,9 hPa 0,0 l/m 0 min 0 min 0 W/m 0,0 km/h (0 Bft) 97,87 %
08.07.2018 04:52 13,7 C 12,8 C 13,3 C 84 % 1021,9 hPa 0,0 l/m 0 min 0 min 0 W/m 0,0 km/h (0 Bft) 97,87 %
08.07.2018 04:54 13,7 C 12,8 C 13,3 C 84 % 1021,9 hPa 0,0 l/m 0 min 0 min 0 W/m 0,0 km/h (0 Bft) 97,87 %
08.07.2018 04:56 13,7 C 12,8 C 13,3 C 84 % 1021,9 hPa 0,0 l/m 0 min 0 min 0 W/m 0,0 km/h (0 Bft) 97,87 %
08.07.2018 04:58 13,7 C 12,2 C 13,3 C 83 % 1021,9 hPa 0,0 l/m 0 min 0 min 0 W/m 0,0 km/h (0 Bft) 93,62 %
08.07.2018 05:00 13,6 C 12,2 C 13,3 C 83 % 1021,8 hPa 0,0 l/m 0 min 0 min 0 W/m 0,0 km/h (0 Bft) 97,83 %
08.07.2018 05:02 13,6 C 12,2 C 13,3 C 83 % 1021,8 hPa 0,0 l/m 0 min 0 min 0 W/m 0,0 km/h (0 Bft) 95,45 %
08.07.2018 05:04 13,6 C 12,2 C 13,3 C 84 % 1021,9 hPa 0,0 l/m 0 min 0 min 0 W/m 0,0 km/h (0 Bft) 98,00 %
08.07.2018 05:06 13,6 C 12,2 C 13,3 C 84 % 1021,9 hPa 0,0 l/m 0 min 0 min 0 W/m 0,0 km/h (0 Bft) 97,83 %
08.07.2018 05:08 13,6 C 12,2 C 13,3 C 84 % 1021,8 hPa 0,0 l/m 0 min 0 min 0 W/m 0,0 km/h (0 Bft) 97,87 %
08.07.2018 05:10 13,6 C 12,2 C 12,8 C 84 % 1021,8 hPa 0,0 l/m 0 min 0 min 0 W/m 0,0 km/h (0 Bft) 97,87 %
08.07.2018 05:12 13,6 C 12,2 C 12,8 C 84 % 1021,9 hPa 0,0 l/m 0 min 0 min 0 W/m 0,0 km/h (0 Bft) 95,74 %
08.07.2018 05:14 13,5 C 12,2 C 12,8 C 84 % 1021,9 hPa 0,0 l/m 0 min 0 min 0 W/m 0,0 km/h (0 Bft) 95,74 %
08.07.2018 05:16 13,5 C 12,8 C 12,8 C 84 % 1021,9 hPa 0,0 l/m 0 min 0 min 0 W/m 0,0 km/h (0 Bft) 97,87 %
08.07.2018 05:18 13,5 C 12,2 C 12,8 C 84 % 1021,9 hPa 0,0 l/m 0 min 0 min 0 W/m 0,0 km/h (0 Bft) 97,87 %
08.07.2018 05:20 13,4 C 12,2 C 12,8 C 84 % 1021,9 hPa 0,0 l/m 0 min 0 min 0 W/m 0,0 km/h (0 Bft) 95,74 %
08.07.2018 05:22 13,4 C 12,2 C 12,8 C 84 % 1021,9 hPa 0,0 l/m 0 min 0 min 0 W/m 0,0 km/h (0 Bft) 93,62 %
08.07.2018 05:24 13,4 C 12,2 C 12,8 C 84 % 1021,9 hPa 0,0 l/m 0 min 0 min 3 W/m 0,0 km/h (0 Bft) 95,65 %
08.07.2018 05:26 13,4 C 12,2 C 12,8 C 85 % 1021,9 hPa 0,0 l/m 0 min 0 min 5 W/m 0,0 km/h (0 Bft) 95,74 %
08.07.2018 05:28 13,4 C 12,2 C 12,8 C 85 % 1021,9 hPa 0,0 l/m 0 min 0 min 5 W/m 0,0 km/h (0 Bft) 95,74 %
08.07.2018 05:30 13,4 C 12,2 C 12,8 C 85 % 1022,0 hPa 0,0 l/m 0 min 0 min 5 W/m 0,0 km/h (0 Bft) 97,87 %
08.07.2018 05:32 13,4 C 12,2 C 12,8 C 85 % 1022,0 hPa 0,0 l/m 0 min 0 min 5 W/m 0,0 km/h (0 Bft) 97,87 %
08.07.2018 05:34 13,3 C 12,2 C 12,8 C 85 % 1022,0 hPa 0,0 l/m 0 min 0 min 7 W/m 0,0 km/h (0 Bft) 97,87 %
08.07.2018 05:35 13,3 C 12,2 C 12,8 C 85 % 1022,0 hPa 0,0 l/m 0 min 0 min 7 W/m 0,0 km/h (0 Bft) 100,00 %
08.07.2018 05:40 13,3 C 12,2 C 12,8 C 85 % 1021,9 hPa 0,0 l/m 0 min 0 min 9 W/m 0,0 km/h (0 Bft) 95,83 %
08.07.2018 05:42 13,3 C 12,2 C 12,8 C 85 % 1021,9 hPa 0,0 l/m 0 min 0 min 9 W/m 0,0 km/h (0 Bft) 97,96 %
08.07.2018 05:44 13,3 C 12,2 C 12,8 C 85 % 1021,9 hPa 0,0 l/m 0 min 0 min 11 W/m 0,0 km/h (0 Bft) 95,65 %
08.07.2018 05:46 13,3 C 12,2 C 12,8 C 85 % 1021,9 hPa 0,0 l/m 0 min 0 min 11 W/m 0,0 km/h (0 Bft) 97,87 %
08.07.2018 05:48 13,3 C 12,2 C 12,8 C 85 % 1022,0 hPa 0,0 l/m 0 min 0 min 11 W/m 0,0 km/h (0 Bft) 97,87 %
08.07.2018 05:50 13,2 C 12,2 C 12,8 C 85 % 1022,1 hPa 0,0 l/m 0 min 0 min 12 W/m 0,0 km/h (0 Bft) 97,87 %
08.07.2018 05:52 13,2 C 12,2 C 12,8 C 86 % 1022,1 hPa 0,0 l/m 0 min 0 min 12 W/m 0,0 km/h (0 Bft) 97,87 %
08.07.2018 05:54 13,2 C 12,2 C 12,8 C 86 % 1022,1 hPa 0,0 l/m 0 min 0 min 14 W/m 0,0 km/h (0 Bft) 97,87 %
08.07.2018 05:56 13,2 C 12,2 C 12,8 C 86 % 1022,1 hPa 0,0 l/m 0 min 0 min 14 W/m 0,0 km/h (0 Bft) 97,83 %
08.07.2018 05:58 13,2 C 12,2 C 12,8 C 86 % 1022,2 hPa 0,0 l/m 0 min 0 min 15 W/m 0,0 km/h (0 Bft) 97,87 %
08.07.2018 06:00 13,2 C 12,2 C 12,8 C 86 % 1022,2 hPa 0,0 l/m 0 min 0 min 16 W/m 0,0 km/h (0 Bft) 97,87 %
08.07.2018 06:02 13,2 C 12,2 C 12,8 C 86 % 1022,3 hPa 0,0 l/m 0 min 0 min 16 W/m 0,0 km/h (0 Bft) 95,74 %
08.07.2018 06:04 13,2 C 12,2 C 12,8 C 86 % 1022,1 hPa 0,0 l/m 0 min 0 min 17 W/m 0,0 km/h (0 Bft) 97,92 %
08.07.2018 06:07 13,2 C 12,2 C 12,8 C 86 % 1022,1 hPa 0,0 l/m 0 min 0 min 18 W/m 0,0 km/h (0 Bft) 97,92 %
08.07.2018 06:08 13,1 C 12,2 C 12,8 C 86 % 1022,1 hPa 0,0 l/m 0 min 0 min 18 W/m 0,0 km/h (0 Bft) 97,92 %
08.07.2018 06:10 13,1 C 12,2 C 12,8 C 86 % 1022,1 hPa 0,0 l/m 0 min 0 min 19 W/m 0,0 km/h (0 Bft) 97,87 %
08.07.2018 06:12 13,1 C 12,2 C 13,3 C 86 % 1022,2 hPa 0,0 l/m 0 min 0 min 19 W/m 0,0 km/h (0 Bft) 95,74 %
08.07.2018 06:14 13,1 C 12,2 C 13,3 C 86 % 1022,2 hPa 0,0 l/m 0 min 0 min 19 W/m 0,0 km/h (0 Bft) 97,87 %
08.07.2018 06:16 13,1 C 12,2 C 13,3 C 86 % 1022,2 hPa 0,0 l/m 0 min 0 min 21 W/m 0,0 km/h (0 Bft) 97,87 %
08.07.2018 06:18 13,1 C 12,2 C 13,3 C 86 % 1022,3 hPa 0,0 l/m 0 min 0 min 21 W/m 0,0 km/h (0 Bft) 97,87 %
08.07.2018 06:20 13,1 C 12,2 C 13,3 C 87 % 1022,2 hPa 0,0 l/m 0 min 0 min 22 W/m 0,0 km/h (0 Bft) 97,83 %
08.07.2018 06:22 13,1 C 12,2 C 12,8 C 87 % 1022,1 hPa 0,0 l/m 0 min 0 min 23 W/m 0,0 km/h (0 Bft) 97,87 %
08.07.2018 06:24 13,1 C 12,2 C 13,3 C 87 % 1022,1 hPa 0,0 l/m 0 min 0 min 23 W/m 0,0 km/h (0 Bft) 97,87 %
08.07.2018 06:26 13,1 C 12,2 C 12,8 C 87 % 1022,2 hPa 0,0 l/m 0 min 0 min 23 W/m 0,0 km/h (0 Bft) 97,87 %
08.07.2018 06:28 13,1 C 12,8 C 12,8 C 87 % 1022,2 hPa 0,0 l/m 0 min 0 min 25 W/m 0,0 km/h (0 Bft) 97,87 %
08.07.2018 06:30 13,1 C 12,8 C 13,3 C 87 % 1022,4 hPa 0,0 l/m 0 min 0 min 25 W/m 0,0 km/h (0 Bft) 97,87 %
08.07.2018 06:32 13,1 C 12,8 C 13,3 C 87 % 1022,3 hPa 0,0 l/m 0 min 0 min 25 W/m 0,0 km/h (0 Bft) 97,83 %
08.07.2018 06:34 13,1 C 12,8 C 13,3 C 87 % 1022,4 hPa 0,0 l/m 0 min 0 min 25 W/m 0,0 km/h (0 Bft) 97,87 %
08.07.2018 06:36 13,1 C 12,8 C 13,3 C 87 % 1022,4 hPa 0,0 l/m 0 min 0 min 26 W/m 0,0 km/h (0 Bft) 97,87 %
08.07.2018 06:38 13,1 C 12,8 C 13,3 C 87 % 1022,4 hPa 0,0 l/m 0 min 0 min 26 W/m 0,0 km/h (0 Bft) 97,87 %
08.07.2018 06:40 13,1 C 12,8 C 13,3 C 87 % 1022,5 hPa 0,0 l/m 0 min 0 min 26 W/m 0,0 km/h (0 Bft) 97,87 %
08.07.2018 06:42 13,1 C 12,8 C 13,3 C 87 % 1022,4 hPa 0,0 l/m 0 min 0 min 26 W/m 0,0 km/h (0 Bft) 97,87 %
08.07.2018 06:44 13,1 C 12,8 C 13,3 C 87 % 1022,4 hPa 0,0 l/m 0 min 0 min 26 W/m 0,0 km/h (0 Bft) 97,83 %
08.07.2018 06:46 13,1 C 12,8 C 13,3 C 88 % 1022,5 hPa 0,0 l/m 0 min 0 min 28 W/m 0,0 km/h (0 Bft) 95,74 %
08.07.2018 06:48 13,1 C 12,8 C 13,3 C 88 % 1022,5 hPa 0,0 l/m 0 min 0 min 28 W/m 0,0 km/h (0 Bft) 100,00 %
08.07.2018 06:50 13,1 C 13,3 C 13,3 C 88 % 1022,6 hPa 0,0 l/m 0 min 0 min 28 W/m 0,0 km/h (0 Bft) 100,00 %
08.07.2018 06:52 13,1 C 12,8 C 13,3 C 88 % 1022,6 hPa 0,0 l/m 0 min 0 min 28 W/m 0,0 km/h (0 Bft) 93,62 %
08.07.2018 06:54 13,1 C 13,3 C 13,3 C 88 % 1022,5 hPa 0,0 l/m 0 min 0 min 30 W/m 0,0 km/h (0 Bft) 93,62 %
08.07.2018 06:56 13,1 C 13,3 C 13,3 C 88 % 1022,5 hPa 0,0 l/m 0 min 0 min 30 W/m 0,0 km/h (0 Bft) 97,83 %
08.07.2018 06:58 13,2 C 13,3 C 13,3 C 88 % 1022,5 hPa 0,0 l/m 0 min 0 min 30 W/m 0,0 km/h (0 Bft) 93,62 %
08.07.2018 07:00 13,2 C 13,3 C 13,3 C 88 % 1022,6 hPa 0,0 l/m 0 min 0 min 30 W/m 0,0 km/h (0 Bft) 95,74 %
08.07.2018 07:02 13,2 C 13,3 C 13,9 C 88 % 1022,6 hPa 0,0 l/m 0 min 0 min 32 W/m 4,5 km/h (1 Bft) 95,24 %
08.07.2018 07:04 13,2 C 13,3 C 13,9 C 88 % 1022,7 hPa 0,0 l/m 0 min 0 min 32 W/m 0,0 km/h (0 Bft) 95,74 %
08.07.2018 07:06 13,2 C 13,3 C 13,9 C 88 % 1022,7 hPa 0,0 l/m 0 min 0 min 32 W/m 2,3 km/h (1 Bft) 97,87 %
08.07.2018 07:08 13,2 C 13,3 C 13,9 C 89 % 1022,7 hPa 0,0 l/m 0 min 0 min 32 W/m 2,3 km/h (1 Bft) 95,74 %
08.07.2018 07:10 13,2 C 13,3 C 13,9 C 89 % 1022,7 hPa 0,0 l/m 0 min 0 min 33 W/m 4,5 km/h (1 Bft) 95,74 %
08.07.2018 07:12 13,3 C 13,3 C 13,9 C 89 % 1022,7 hPa 0,0 l/m 0 min 0 min 33 W/m 6,8 km/h (2 Bft) 91,67 %
08.07.2018 07:14 13,3 C 13,9 C 13,9 C 89 % 1022,7 hPa 0,0 l/m 0 min 0 min 34 W/m 2,3 km/h (1 Bft) 95,83 %
08.07.2018 07:16 13,3 C 13,9 C 13,9 C 89 % 1022,7 hPa 0,0 l/m 0 min 0 min 35 W/m 0,0 km/h (0 Bft) 91,30 %
08.07.2018 07:18 13,3 C 13,9 C 13,9 C 89 % 1022,7 hPa 0,0 l/m 0 min 0 min 35 W/m 4,5 km/h (1 Bft) 95,83 %
08.07.2018 07:20 13,3 C 13,9 C 13,9 C 89 % 1022,7 hPa 0,0 l/m 0 min 0 min 37 W/m 2,3 km/h (1 Bft) 95,74 %
08.07.2018 07:22 13,3 C 13,9 C 13,9 C 89 % 1022,7 hPa 0,0 l/m 0 min 0 min 37 W/m 2,3 km/h (1 Bft) 96,23 %
08.07.2018 07:24 13,4 C 13,9 C 13,9 C 89 % 1022,7 hPa 0,0 l/m 0 min 0 min 38 W/m 2,3 km/h (1 Bft) 95,24 %
08.07.2018 07:26 13,4 C 13,9 C 13,9 C 89 % 1022,7 hPa 0,0 l/m 0 min 0 min 39 W/m 0,0 km/h (0 Bft) 95,74 %
08.07.2018 07:28 13,4 C 13,9 C 13,9 C 89 % 1022,7 hPa 0,0 l/m 0 min 0 min 39 W/m 0,0 km/h (0 Bft) 93,48 %
08.07.2018 07:30 13,4 C 13,9 C 13,9 C 89 % 1022,8 hPa 0,0 l/m 0 min 0 min 39 W/m 0,0 km/h (0 Bft) 95,74 %
08.07.2018 07:32 13,5 C 13,9 C 13,9 C 89 % 1022,8 hPa 0,0 l/m 0 min 0 min 40 W/m 6,8 km/h (2 Bft) 93,62 %
08.07.2018 07:34 13,5 C 13,9 C 13,9 C 89 % 1022,8 hPa 0,0 l/m 0 min 0 min 40 W/m 0,0 km/h (0 Bft) 95,74 %
08.07.2018 07:36 13,5 C 13,9 C 13,9 C 89 % 1022,8 hPa 0,0 l/m 0 min 0 min 40 W/m 6,8 km/h (2 Bft) 95,74 %
08.07.2018 07:38 13,6 C 13,9 C 13,9 C 89 % 1022,8 hPa 0,0 l/m 0 min 0 min 42 W/m 6,8 km/h (2 Bft) 95,74 %
08.07.2018 07:40 13,6 C 14,4 C 13,9 C 89 % 1022,8 hPa 0,0 l/m 0 min 0 min 42 W/m 6,8 km/h (2 Bft) 95,65 %
08.07.2018 07:42 13,6 C 14,4 C 13,9 C 89 % 1022,9 hPa 0,0 l/m 0 min 0 min 42 W/m 0,0 km/h (0 Bft) 93,62 %
08.07.2018 07:44 13,7 C 14,4 C 13,9 C 89 % 1022,7 hPa 0,0 l/m 0 min 0 min 43 W/m 0,0 km/h (0 Bft) 95,83 %
08.07.2018 07:46 13,7 C 14,4 C 13,9 C 89 % 1022,8 hPa 0,0 l/m 0 min 0 min 44 W/m 4,5 km/h (1 Bft) 97,87 %
08.07.2018 07:48 13,7 C 14,4 C 13,9 C 89 % 1022,8 hPa 0,0 l/m 0 min 0 min 45 W/m 11,3 km/h (2 Bft) 97,87 %
08.07.2018 07:50 13,8 C 14,4 C 13,9 C 89 % 1022,7 hPa 0,0 l/m 0 min 0 min 46 W/m 6,8 km/h (2 Bft) 97,83 %
08.07.2018 07:52 13,8 C 14,4 C 14,4 C 89 % 1022,7 hPa 0,0 l/m 0 min 0 min 46 W/m 11,3 km/h (2 Bft) 97,87 %
08.07.2018 07:54 13,8 C 14,4 C 14,4 C 89 % 1022,7 hPa 0,0 l/m 0 min 0 min 46 W/m 9,0 km/h (2 Bft) 100,00 %
08.07.2018 07:56 13,9 C 14,4 C 14,4 C 89 % 1022,7 hPa 0,0 l/m 0 min 0 min 47 W/m 4,5 km/h (1 Bft) 100,00 %
08.07.2018 07:58 13,9 C 14,4 C 14,4 C 89 % 1022,6 hPa 0,0 l/m 0 min 0 min 48 W/m 4,5 km/h (1 Bft) 100,00 %
08.07.2018 08:00 13,9 C 15,0 C 14,4 C 88 % 1022,7 hPa 0,0 l/m 0 min 0 min 49 W/m 6,8 km/h (2 Bft) 97,87 %
08.07.2018 08:02 14,0 C 15,0 C 14,4 C 88 % 1022,7 hPa 0,0 l/m 0 min 0 min 51 W/m 4,5 km/h (1 Bft) 97,14 %
08.07.2018 08:04 14,1 C 15,6 C 14,4 C 89 % 1022,7 hPa 0,0 l/m 0 min 0 min 51 W/m 4,5 km/h (1 Bft) 98,28 %
08.07.2018 08:06 14,2 C 17,2 C 14,4 C 89 % 1022,6 hPa 0,0 l/m 0 min 0 min 52 W/m 9,0 km/h (2 Bft) 100,00 %
08.07.2018 08:08 14,2 C 17,8 C 14,4 C 88 % 1022,7 hPa 0,0 l/m 0 min 0 min 53 W/m 9,0 km/h (2 Bft) 100,00 %
08.07.2018 08:10 14,2 C 16,7 C 14,4 C 88 % 1022,7 hPa 0,0 l/m 0 min 0 min 53 W/m 6,8 km/h (2 Bft) 100,00 %
08.07.2018 08:12 14,2 C 16,1 C 14,4 C 88 % 1022,7 hPa 0,0 l/m 0 min 0 min 54 W/m 4,5 km/h (1 Bft) 100,00 %
08.07.2018 08:14 14,3 C 16,1 C 14,4 C 88 % 1022,7 hPa 0,0 l/m 0 min 0 min 84 W/m 9,0 km/h (2 Bft) 100,00 %
08.07.2018 08:16 14,4 C 16,1 C 14,4 C 88 % 1022,7 hPa 0,0 l/m 2 min 0 min 236 W/m 4,5 km/h (1 Bft) 97,83 %
08.07.2018 08:18 14,4 C 16,7 C 14,4 C 88 % 1022,7 hPa 0,0 l/m 2 min 0 min 294 W/m 6,8 km/h (2 Bft) 100,00 %
08.07.2018 08:20 14,5 C 16,7 C 14,4 C 87 % 1022,8 hPa 0,0 l/m 2 min 0 min 297 W/m 9,0 km/h (2 Bft) 100,00 %
08.07.2018 08:22 14,6 C 16,7 C 15,0 C 87 % 1022,8 hPa 0,0 l/m 2 min 0 min 303 W/m 6,8 km/h (2 Bft) 100,00 %
08.07.2018 08:24 14,7 C 16,7 C 15,0 C 87 % 1022,7 hPa 0,0 l/m 2 min 0 min 312 W/m 2,3 km/h (1 Bft) 97,92 %
08.07.2018 08:26 14,8 C 16,1 C 15,0 C 87 % 1022,7 hPa 0,0 l/m 2 min 0 min 316 W/m 6,8 km/h (2 Bft) 100,00 %
08.07.2018 08:28 14,8 C 16,1 C 15,0 C 86 % 1022,7 hPa 0,0 l/m 2 min 0 min 321 W/m 6,8 km/h (2 Bft) 100,00 %
08.07.2018 08:30 14,9 C 16,1 C 15,0 C 86 % 1022,7 hPa 0,0 l/m 2 min 0 min 299 W/m 6,8 km/h (2 Bft) 97,92 %
08.07.2018 08:32 15,1 C 16,1 C 15,0 C 86 % 1022,7 hPa 0,0 l/m 2 min 0 min 227 W/m 9,0 km/h (2 Bft) 100,00 %
08.07.2018 08:34 15,1 C 16,1 C 15,0 C 85 % 1022,7 hPa 0,0 l/m 2 min 0 min 262 W/m 4,5 km/h (1 Bft) 100,00 %
08.07.2018 08:36 15,2 C 16,1 C 15,0 C 85 % 1022,7 hPa 0,0 l/m 2 min 0 min 343 W/m 6,8 km/h (2 Bft) 100,00 %
08.07.2018 08:38 15,3 C 16,1 C 15,0 C 85 % 1022,7 hPa 0,0 l/m 2 min 0 min 348 W/m 4,5 km/h (1 Bft) 100,00 %
08.07.2018 08:40 15,3 C 16,7 C 15,0 C 84 % 1022,7 hPa 0,0 l/m 2 min 0 min 353 W/m 4,5 km/h (1 Bft) 100,00 %
08.07.2018 08:42 15,4 C 16,7 C 15,0 C 84 % 1022,7 hPa 0,0 l/m 2 min 0 min 359 W/m 6,8 km/h (2 Bft) 100,00 %
08.07.2018 08:44 15,5 C 16,7 C 15,0 C 84 % 1022,7 hPa 0,0 l/m 2 min 0 min 365 W/m 6,8 km/h (2 Bft) 100,00 %
08.07.2018 08:46 15,6 C 16,7 C 15,0 C 83 % 1022,7 hPa 0,0 l/m 2 min 0 min 372 W/m 6,8 km/h (2 Bft) 100,00 %
08.07.2018 08:48 15,6 C 16,7 C 15,0 C 83 % 1022,6 hPa 0,0 l/m 2 min 0 min 378 W/m 6,8 km/h (2 Bft) 100,00 %
08.07.2018 08:50 15,7 C 16,7 C 15,0 C 82 % 1022,6 hPa 0,0 l/m 2 min 0 min 383 W/m 11,3 km/h (2 Bft) 100,00 %
08.07.2018 08:52 15,7 C 16,7 C 15,6 C 82 % 1022,6 hPa 0,0 l/m 2 min 0 min 382 W/m 6,8 km/h (2 Bft) 100,00 %
08.07.2018 08:54 15,8 C 16,7 C 15,6 C 82 % 1022,6 hPa 0,0 l/m 2 min 0 min 390 W/m 6,8 km/h (2 Bft) 100,00 %
08.07.2018 08:56 15,9 C 17,2 C 15,6 C 82 % 1022,7 hPa 0,0 l/m 2 min 0 min 389 W/m 4,5 km/h (1 Bft) 100,00 %
08.07.2018 08:58 15,9 C 17,2 C 15,6 C 81 % 1022,6 hPa 0,0 l/m 2 min 0 min 395 W/m 4,5 km/h (1 Bft) 100,00 %
08.07.2018 09:00 16,0 C 17,2 C 16,1 C 81 % 1022,6 hPa 0,0 l/m 2 min 0 min 401 W/m 6,8 km/h (2 Bft) 100,00 %
08.07.2018 09:02 16,1 C 17,2 C 16,1 C 80 % 1022,6 hPa 0,0 l/m 2 min 0 min 407 W/m 6,8 km/h (2 Bft) 95,74 %
08.07.2018 09:04 16,1 C 17,2 C 16,1 C 79 % 1022,6 hPa 0,0 l/m 2 min 0 min 416 W/m 11,3 km/h (2 Bft) 97,87 %
08.07.2018 09:06 16,2 C 17,2 C 16,1 C 78 % 1022,7 hPa 0,0 l/m 2 min 0 min 416 W/m 9,0 km/h (2 Bft) 97,83 %
08.07.2018 09:08 16,2 C 17,2 C 16,1 C 77 % 1022,7 hPa 0,0 l/m 2 min 0 min 416 W/m 9,0 km/h (2 Bft) 100,00 %
08.07.2018 09:10 16,2 C 17,2 C 16,1 C 77 % 1022,7 hPa 0,0 l/m 2 min 0 min 427 W/m 9,0 km/h (2 Bft) 100,00 %
08.07.2018 09:12 16,3 C 17,8 C 16,1 C 76 % 1022,8 hPa 0,0 l/m 2 min 0 min 440 W/m 13,5 km/h (3 Bft) 100,00 %
08.07.2018 09:14 16,4 C 17,8 C 16,1 C 76 % 1022,8 hPa 0,0 l/m 2 min 0 min 448 W/m 6,8 km/h (2 Bft) 100,00 %
08.07.2018 09:16 16,4 C 17,8 C 16,1 C 76 % 1022,8 hPa 0,0 l/m 2 min 0 min 454 W/m 4,5 km/h (1 Bft) 100,00 %
08.07.2018 09:18 16,5 C 17,8 C 16,1 C 76 % 1022,8 hPa 0,0 l/m 2 min 0 min 460 W/m 9,0 km/h (2 Bft) 100,00 %
08.07.2018 09:20 16,6 C 18,3 C 16,1 C 75 % 1022,8 hPa 0,0 l/m 2 min 0 min 463 W/m 11,3 km/h (2 Bft) 100,00 %
08.07.2018 09:22 16,7 C 18,3 C 16,1 C 75 % 1022,8 hPa 0,0 l/m 2 min 0 min 471 W/m 4,5 km/h (1 Bft) 100,00 %
08.07.2018 09:24 16,7 C 18,3 C 16,1 C 75 % 1022,8 hPa 0,0 l/m 2 min 0 min 475 W/m 9,0 km/h (2 Bft) 97,92 %
08.07.2018 09:26 16,8 C 18,3 C 16,7 C 75 % 1022,8 hPa 0,0 l/m 2 min 0 min 478 W/m 6,8 km/h (2 Bft) 97,87 %
08.07.2018 09:28 16,8 C 18,3 C 16,7 C 75 % 1022,8 hPa 0,0 l/m 2 min 0 min 484 W/m 6,8 km/h (2 Bft) 97,83 %
08.07.2018 09:30 16,9 C 18,3 C 16,7 C 75 % 1022,8 hPa 0,0 l/m 2 min 0 min 492 W/m 6,8 km/h (2 Bft) 97,87 %
08.07.2018 09:32 17,0 C 17,8 C 16,7 C 75 % 1022,8 hPa 0,0 l/m 2 min 0 min 498 W/m 11,3 km/h (2 Bft) 95,74 %
08.07.2018 09:34 17,0 C 17,8 C 16,7 C 74 % 1022,8 hPa 0,0 l/m 2 min 0 min 501 W/m 9,0 km/h (2 Bft) 95,83 %
08.07.2018 09:36 17,1 C 17,8 C 16,7 C 73 % 1022,8 hPa 0,0 l/m 2 min 0 min 507 W/m 9,0 km/h (2 Bft) 93,62 %
08.07.2018 09:38 17,1 C 17,8 C 16,7 C 73 % 1022,8 hPa 0,0 l/m 2 min 0 min 510 W/m 11,3 km/h (2 Bft) 95,65 %
08.07.2018 09:40 17,2 C 18,3 C 16,7 C 72 % 1022,8 hPa 0,0 l/m 2 min 0 min 512 W/m 4,5 km/h (1 Bft) 95,74 %
08.07.2018 09:42 17,3 C 18,3 C 16,7 C 73 % 1022,8 hPa 0,0 l/m 2 min 0 min 519 W/m 6,8 km/h (2 Bft) 95,74 %
08.07.2018 09:44 17,3 C 17,8 C 16,7 C 72 % 1022,9 hPa 0,0 l/m 2 min 0 min 519 W/m 9,0 km/h (2 Bft) 95,83 %
08.07.2018 09:46 17,4 C 18,3 C 16,7 C 71 % 1022,8 hPa 0,0 l/m 2 min 0 min 529 W/m 9,0 km/h (2 Bft) 91,49 %
08.07.2018 09:48 17,4 C 18,3 C 16,7 C 70 % 1022,8 hPa 0,0 l/m 2 min 0 min 540 W/m 13,5 km/h (3 Bft) 93,88 %
08.07.2018 09:50 17,4 C 18,3 C 16,7 C 68 % 1022,8 hPa 0,0 l/m 2 min 0 min 543 W/m 9,0 km/h (2 Bft) 95,74 %
08.07.2018 09:52 17,5 C 18,3 C 16,7 C 68 % 1022,8 hPa 0,0 l/m 2 min 0 min 547 W/m 13,5 km/h (3 Bft) 89,36 %
08.07.2018 09:54 17,6 C 18,3 C 16,7 C 68 % 1022,8 hPa 0,0 l/m 2 min 0 min 549 W/m 11,3 km/h (2 Bft) 93,62 %
08.07.2018 09:56 17,6 C 18,3 C 16,7 C 68 % 1022,7 hPa 0,0 l/m 2 min 0 min 556 W/m 9,0 km/h (2 Bft) 93,62 %
08.07.2018 09:58 17,7 C 18,9 C 17,2 C 67 % 1022,7 hPa 0,0 l/m 2 min 0 min 559 W/m 13,5 km/h (3 Bft) 95,74 %
08.07.2018 10:00 17,7 C 18,3 C 17,2 C 67 % 1022,8 hPa 0,0 l/m 2 min 0 min 564 W/m 13,5 km/h (3 Bft) 95,74 %
08.07.2018 10:02 17,8 C 19,4 C 17,2 C 67 % 1022,8 hPa 0,0 l/m 2 min 0 min 569 W/m 11,3 km/h (2 Bft) 93,62 %
08.07.2018 10:04 17,8 C 19,4 C 17,2 C 67 % 1022,8 hPa 0,0 l/m 2 min 0 min 573 W/m 11,3 km/h (2 Bft) 93,48 %
08.07.2018 10:06 17,9 C 20,0 C 17,2 C 67 % 1022,8 hPa 0,0 l/m 2 min 0 min 576 W/m 6,8 km/h (2 Bft) 91,49 %
08.07.2018 10:08 17,9 C 20,0 C 17,8 C 66 % 1022,7 hPa 0,0 l/m 2 min 0 min 582 W/m 6,8 km/h (2 Bft) 93,62 %
08.07.2018 10:10 18,0 C 20,0 C 17,2 C 67 % 1022,8 hPa 0,0 l/m 2 min 0 min 585 W/m 9,0 km/h (2 Bft) 91,49 %
08.07.2018 10:12 18,1 C 19,4 C 17,2 C 67 % 1022,8 hPa 0,0 l/m 2 min 0 min 591 W/m 6,8 km/h (2 Bft) 93,62 %
08.07.2018 10:14 18,1 C 19,4 C 17,2 C 66 % 1022,8 hPa 0,0 l/m 2 min 0 min 596 W/m 11,3 km/h (2 Bft) 93,62 %
08.07.2018 10:16 18,2 C 19,4 C 17,8 C 66 % 1022,8 hPa 0,0 l/m 2 min 0 min 601 W/m 9,0 km/h (2 Bft) 93,48 %
08.07.2018 10:18 18,2 C 19,4 C 17,8 C 65 % 1022,8 hPa 0,0 l/m 2 min 0 min 609 W/m 15,8 km/h (3 Bft) 95,74 %
08.07.2018 10:20 18,3 C 19,4 C 17,8 C 65 % 1022,8 hPa 0,0 l/m 2 min 0 min 612 W/m 11,3 km/h (2 Bft) 97,87 %
08.07.2018 10:22 18,3 C 19,4 C 17,8 C 66 % 1022,8 hPa 0,0 l/m 2 min 0 min 617 W/m 9,0 km/h (2 Bft) 95,74 %
08.07.2018 10:24 18,4 C 19,4 C 17,8 C 66 % 1022,8 hPa 0,0 l/m 2 min 0 min 621 W/m 11,3 km/h (2 Bft) 95,74 %
08.07.2018 10:26 18,4 C 19,4 C 17,8 C 66 % 1022,8 hPa 0,0 l/m 2 min 0 min 625 W/m 4,5 km/h (1 Bft) 95,65 %
08.07.2018 10:28 18,5 C 20,0 C 17,8 C 66 % 1022,8 hPa 0,0 l/m 2 min 0 min 628 W/m 4,5 km/h (1 Bft) 95,74 %
08.07.2018 10:30 18,6 C 20,0 C 17,8 C 67 % 1022,7 hPa 0,0 l/m 2 min 0 min 633 W/m 11,3 km/h (2 Bft) 95,24 %
08.07.2018 10:32 18,6 C 20,0 C 17,8 C 67 % 1022,8 hPa 0,0 l/m 2 min 0 min 636 W/m 6,8 km/h (2 Bft) 95,74 %
08.07.2018 10:34 18,7 C 20,0 C 17,8 C 66 % 1022,8 hPa 0,0 l/m 2 min 0 min 639 W/m 11,3 km/h (2 Bft) 97,87 %
08.07.2018 10:36 18,7 C 20,0 C 18,3 C 66 % 1022,8 hPa 0,0 l/m 2 min 0 min 644 W/m 9,0 km/h (2 Bft) 97,87 %
08.07.2018 10:38 18,8 C 20,0 C 18,3 C 66 % 1022,7 hPa 0,0 l/m 2 min 0 min 649 W/m 4,5 km/h (1 Bft) 95,65 %
08.07.2018 10:40 18,8 C 20,6 C 18,3 C 66 % 1022,7 hPa 0,0 l/m 2 min 0 min 654 W/m 9,0 km/h (2 Bft) 91,49 %
08.07.2018 10:42 18,9 C 20,6 C 18,3 C 66 % 1022,7 hPa 0,0 l/m 2 min 0 min 660 W/m 9,0 km/h (2 Bft) 97,87 %
08.07.2018 10:44 19,0 C 20,6 C 18,3 C 65 % 1022,8 hPa 0,0 l/m 2 min 0 min 663 W/m 6,8 km/h (2 Bft) 97,87 %
08.07.2018 10:46 19,1 C 20,6 C 18,3 C 65 % 1022,8 hPa 0,0 l/m 2 min 0 min 667 W/m 11,3 km/h (2 Bft) 97,87 %
08.07.2018 10:48 19,2 C 20,6 C 18,3 C 65 % 1022,8 hPa 0,0 l/m 2 min 0 min 671 W/m 11,3 km/h (2 Bft) 97,83 %
08.07.2018 10:50 19,3 C 20,6 C 18,3 C 65 % 1022,8 hPa 0,0 l/m 2 min 0 min 672 W/m 11,3 km/h (2 Bft) 95,74 %
08.07.2018 10:52 19,4 C 20,6 C 18,3 C 65 % 1022,8 hPa 0,0 l/m 2 min 0 min 678 W/m 15,8 km/h (3 Bft) 97,87 %
08.07.2018 10:54 19,4 C 21,1 C 18,3 C 65 % 1022,8 hPa 0,0 l/m 2 min 0 min 682 W/m 11,3 km/h (2 Bft) 95,74 %
08.07.2018 10:56 19,6 C 21,1 C 18,3 C 65 % 1022,8 hPa 0,0 l/m 2 min 0 min 689 W/m 9,0 km/h (2 Bft) 100,00 %
08.07.2018 10:58 19,6 C 22,2 C 18,9 C 64 % 1022,8 hPa 0,0 l/m 2 min 0 min 691 W/m 11,3 km/h (2 Bft) 97,87 %
08.07.2018 11:00 19,7 C 22,2 C 18,9 C 64 % 1022,9 hPa 0,0 l/m 2 min 0 min 693 W/m 11,3 km/h (2 Bft) 100,00 %
08.07.2018 11:02 19,8 C 22,8 C 18,9 C 64 % 1022,8 hPa 0,0 l/m 2 min 0 min 695 W/m 11,3 km/h (2 Bft) 98,00 %
08.07.2018 11:04 19,9 C 23,9 C 18,3 C 64 % 1022,8 hPa 0,0 l/m 2 min 0 min 698 W/m 9,0 km/h (2 Bft) 100,00 %
08.07.2018 11:06 20,0 C 25,0 C 18,9 C 65 % 1022,8 hPa 0,0 l/m 2 min 0 min 703 W/m 9,0 km/h (2 Bft) 97,92 %
08.07.2018 11:08 20,1 C 25,0 C 18,9 C 64 % 1022,8 hPa 0,0 l/m 2 min 0 min 708 W/m 15,8 km/h (3 Bft) 97,87 %
08.07.2018 11:10 20,2 C 25,6 C 18,9 C 64 % 1022,8 hPa 0,0 l/m 2 min 0 min 709 W/m 11,3 km/h (2 Bft) 100,00 %
08.07.2018 11:12 20,3 C 26,1 C 18,9 C 64 % 1022,7 hPa 0,0 l/m 2 min 0 min 714 W/m 11,3 km/h (2 Bft) 100,00 %
08.07.2018 11:14 20,4 C 25,0 C 18,9 C 63 % 1022,8 hPa 0,0 l/m 2 min 0 min 722 W/m 9,0 km/h (2 Bft) 100,00 %
08.07.2018 11:16 20,6 C 26,7 C 18,9 C 64 % 1022,8 hPa 0,0 l/m 2 min 0 min 728 W/m 6,8 km/h (2 Bft) 100,00 %
08.07.2018 11:18 20,7 C 28,3 C 19,4 C 65 % 1022,8 hPa 0,0 l/m 2 min 0 min 730 W/m 11,3 km/h (2 Bft) 100,00 %
08.07.2018 11:20 20,9 C 28,9 C 19,4 C 63 % 1022,8 hPa 0,0 l/m 2 min 0 min 734 W/m 13,5 km/h (3 Bft) 100,00 %
08.07.2018 11:22 21,1 C 29,4 C 19,4 C 63 % 1022,7 hPa 0,0 l/m 2 min 0 min 737 W/m 20,3 km/h (4 Bft) 100,00 %
08.07.2018 11:24 21,2 C 29,4 C 19,4 C 62 % 1022,7 hPa 0,0 l/m 2 min 0 min 738 W/m 13,5 km/h (3 Bft) 100,00 %
08.07.2018 11:26 21,3 C 29,4 C 19,4 C 62 % 1022,7 hPa 0,0 l/m 2 min 0 min 744 W/m 11,3 km/h (2 Bft) 100,00 %
08.07.2018 11:28 21,4 C 30,0 C 19,4 C 62 % 1022,7 hPa 0,0 l/m 2 min 0 min 746 W/m 18,0 km/h (3 Bft) 100,00 %
08.07.2018 11:30 21,6 C 30,6 C 19,4 C 61 % 1022,7 hPa 0,0 l/m 2 min 0 min 745 W/m 18,0 km/h (3 Bft) 100,00 %
08.07.2018 11:32 21,7 C 30,0 C 19,4 C 61 % 1022,7 hPa 0,0 l/m 2 min 0 min 751 W/m 18,0 km/h (3 Bft) 100,00 %
08.07.2018 11:34 21,8 C 28,3 C 20,0 C 61 % 1022,7 hPa 0,0 l/m 2 min 0 min 756 W/m 15,8 km/h (3 Bft) 100,00 %
08.07.2018 11:36 21,9 C 28,9 C 19,4 C 60 % 1022,7 hPa 0,0 l/m 2 min 0 min 759 W/m 11,3 km/h (2 Bft) 100,00 %
08.07.2018 11:38 22,0 C 29,4 C 20,0 C 61 % 1022,7 hPa 0,0 l/m 2 min 0 min 762 W/m 13,5 km/h (3 Bft) 100,00 %
08.07.2018 11:40 22,1 C 28,9 C 20,0 C 62 % 1022,7 hPa 0,0 l/m 2 min 0 min 764 W/m 18,0 km/h (3 Bft) 100,00 %
08.07.2018 11:42 22,2 C 28,3 C 20,0 C 60 % 1022,7 hPa 0,0 l/m 2 min 0 min 766 W/m 20,3 km/h (4 Bft) 100,00 %
08.07.2018 11:44 22,3 C 28,9 C 20,0 C 60 % 1022,7 hPa 0,0 l/m 2 min 0 min 768 W/m 18,0 km/h (3 Bft) 100,00 %
08.07.2018 11:46 22,4 C 29,4 C 20,0 C 60 % 1022,7 hPa 0,0 l/m 2 min 0 min 773 W/m 13,5 km/h (3 Bft) 95,74 %
08.07.2018 11:48 22,5 C 30,6 C 20,0 C 61 % 1022,7 hPa 0,0 l/m 2 min 0 min 778 W/m 9,0 km/h (2 Bft) 100,00 %
08.07.2018 11:50 22,6 C 30,6 C 20,0 C 60 % 1022,7 hPa 0,0 l/m 2 min 0 min 781 W/m 13,5 km/h (3 Bft) 97,87 %
08.07.2018 11:52 22,7 C 29,4 C 20,6 C 59 % 1022,8 hPa 0,0 l/m 2 min 0 min 788 W/m 13,5 km/h (3 Bft) 100,00 %
08.07.2018 11:54 22,8 C 30,0 C 20,6 C 60 % 1022,7 hPa 0,0 l/m 2 min 0 min 790 W/m 11,3 km/h (2 Bft) 97,87 %
08.07.2018 11:56 22,9 C 31,1 C 20,6 C 60 % 1022,7 hPa 0,0 l/m 2 min 0 min 787 W/m 6,8 km/h (2 Bft) 100,00 %
08.07.2018 11:58 23,1 C 31,7 C 20,0 C 59 % 1022,7 hPa 0,0 l/m 2 min 0 min 794 W/m 11,3 km/h (2 Bft) 100,00 %
08.07.2018 12:00 23,2 C 31,1 C 20,6 C 59 % 1022,7 hPa 0,0 l/m 2 min 0 min 795 W/m 11,3 km/h (2 Bft) 100,00 %
08.07.2018 12:02 23,3 C 31,7 C 20,6 C 59 % 1022,7 hPa 0,0 l/m 2 min 0 min 806 W/m 9,0 km/h (2 Bft) 100,00 %
08.07.2018 12:04 23,4 C 31,7 C 20,6 C 57 % 1022,7 hPa 0,0 l/m 2 min 0 min 807 W/m 9,0 km/h (2 Bft) 97,87 %
08.07.2018 12:08 23,6 C 31,7 C 20,6 C 58 % 1022,7 hPa 0,0 l/m 4 min 0 min 809 W/m 11,3 km/h (2 Bft) 97,92 %
08.07.2018 12:10 23,7 C 31,7 C 20,6 C 58 % 1022,7 hPa 0,0 l/m 2 min 0 min 814 W/m 11,3 km/h (2 Bft) 97,87 %
08.07.2018 12:12 23,8 C 31,1 C 21,1 C 57 % 1022,7 hPa 0,0 l/m 2 min 0 min 807 W/m 13,5 km/h (3 Bft) 95,74 %
08.07.2018 12:14 23,9 C 31,1 C 21,1 C 57 % 1022,7 hPa 0,0 l/m 2 min 0 min 816 W/m 9,0 km/h (2 Bft) 97,92 %
08.07.2018 12:16 23,9 C 31,7 C 21,1 C 57 % 1022,7 hPa 0,0 l/m 2 min 0 min 824 W/m 11,3 km/h (2 Bft) 97,87 %
08.07.2018 12:18 24,0 C 32,2 C 21,1 C 57 % 1022,5 hPa 0,0 l/m 2 min 0 min 829 W/m 13,5 km/h (3 Bft) 97,87 %
08.07.2018 12:20 24,1 C 31,7 C 21,1 C 57 % 1022,5 hPa 0,0 l/m 2 min 0 min 833 W/m 11,3 km/h (2 Bft) 97,87 %
08.07.2018 12:22 24,2 C 32,2 C 21,1 C 57 % 1022,5 hPa 0,0 l/m 2 min 0 min 847 W/m 9,0 km/h (2 Bft) 97,87 %
08.07.2018 12:24 24,2 C 32,2 C 21,1 C 57 % 1022,5 hPa 0,0 l/m 2 min 0 min 881 W/m 9,0 km/h (2 Bft) 97,87 %
08.07.2018 12:26 24,3 C 32,8 C 21,1 C 57 % 1022,5 hPa 0,0 l/m 2 min 0 min 882 W/m 11,3 km/h (2 Bft) 97,87 %
08.07.2018 12:28 24,4 C 33,9 C 21,7 C 57 % 1022,5 hPa 0,0 l/m 2 min 0 min 862 W/m 6,8 km/h (2 Bft) 95,74 %
08.07.2018 12:30 24,5 C 31,7 C 21,7 C 56 % 1022,5 hPa 0,0 l/m 2 min 0 min 862 W/m 11,3 km/h (2 Bft) 97,87 %
08.07.2018 12:32 24,6 C 32,2 C 21,1 C 56 % 1022,5 hPa 0,0 l/m 2 min 0 min 882 W/m 18,0 km/h (3 Bft) 97,87 %
08.07.2018 12:34 24,6 C 31,7 C 21,1 C 56 % 1022,5 hPa 0,0 l/m 2 min 0 min 888 W/m 15,8 km/h (3 Bft) 95,65 %
08.07.2018 12:36 24,7 C 32,2 C 21,1 C 56 % 1022,6 hPa 0,0 l/m 2 min 0 min 865 W/m 22,5 km/h (4 Bft) 95,83 %
08.07.2018 12:38 24,7 C 31,7 C 21,7 C 55 % 1022,6 hPa 0,0 l/m 2 min 0 min 864 W/m 18,0 km/h (3 Bft) 95,74 %
08.07.2018 12:40 24,7 C 31,7 C 21,7 C 55 % 1022,6 hPa 0,0 l/m 2 min 0 min 873 W/m 11,3 km/h (2 Bft) 95,74 %
08.07.2018 12:42 24,7 C 32,2 C 21,7 C 56 % 1022,6 hPa 0,0 l/m 2 min 0 min 896 W/m 11,3 km/h (2 Bft) 95,74 %
08.07.2018 12:44 24,7 C 32,2 C 21,7 C 55 % 1022,5 hPa 0,0 l/m 2 min 0 min 927 W/m 6,8 km/h (2 Bft) 93,62 %
08.07.2018 12:46 24,7 C 32,2 C 22,2 C 56 % 1022,5 hPa 0,0 l/m 2 min 0 min 920 W/m 18,0 km/h (3 Bft) 95,65 %
08.07.2018 12:48 24,8 C 31,7 C 22,2 C 55 % 1022,5 hPa 0,0 l/m 2 min 0 min 913 W/m 11,3 km/h (2 Bft) 97,87 %
08.07.2018 12:50 24,9 C 31,7 C 22,2 C 56 % 1022,5 hPa 0,0 l/m 2 min 0 min 896 W/m 15,8 km/h (3 Bft) 97,87 %
08.07.2018 12:52 24,9 C 32,2 C 22,2 C 55 % 1022,5 hPa 0,0 l/m 2 min 0 min 887 W/m 11,3 km/h (2 Bft) 97,87 %
08.07.2018 12:54 24,9 C 32,2 C 22,2 C 55 % 1022,5 hPa 0,0 l/m 2 min 0 min 899 W/m 9,0 km/h (2 Bft) 97,87 %
08.07.2018 12:56 25,1 C 32,8 C 22,2 C 56 % 1022,5 hPa 0,0 l/m 2 min 0 min 921 W/m 11,3 km/h (2 Bft) 95,74 %
08.07.2018 12:58 25,1 C 29,4 C 22,2 C 54 % 1022,5 hPa 0,0 l/m 2 min 0 min 951 W/m 18,0 km/h (3 Bft) 95,65 %
08.07.2018 13:00 25,0 C 30,6 C 22,2 C 54 % 1022,5 hPa 0,0 l/m 2 min 0 min 953 W/m 18,0 km/h (3 Bft) 97,87 %
08.07.2018 13:02 25,1 C 31,1 C 22,2 C 54 % 1022,5 hPa 0,0 l/m 2 min 0 min 934 W/m 22,5 km/h (4 Bft) 97,62 %
08.07.2018 13:04 25,0 C 31,7 C 22,2 C 55 % 1022,4 hPa 0,0 l/m 2 min 0 min 931 W/m 18,0 km/h (3 Bft) 95,74 %
08.07.2018 13:06 24,9 C 31,1 C 21,7 C 54 % 1022,4 hPa 0,0 l/m 2 min 0 min 953 W/m 15,8 km/h (3 Bft) 97,92 %
08.07.2018 13:08 24,9 C 31,7 C 22,2 C 54 % 1022,3 hPa 0,0 l/m 2 min 0 min 956 W/m 20,3 km/h (4 Bft) 95,65 %
08.07.2018 13:10 24,9 C 31,1 C 22,2 C 54 % 1022,3 hPa 0,0 l/m 2 min 0 min 976 W/m 11,3 km/h (2 Bft) 95,74 %
08.07.2018 13:12 24,9 C 30,6 C 22,8 C 55 % 1022,2 hPa 0,0 l/m 2 min 0 min 978 W/m 11,3 km/h (2 Bft) 93,62 %
08.07.2018 13:14 24,9 C 31,7 C 22,8 C 55 % 1022,2 hPa 0,0 l/m 2 min 0 min 954 W/m 9,0 km/h (2 Bft) 97,87 %
08.07.2018 13:16 24,9 C 32,8 C 22,8 C 55 % 1022,2 hPa 0,0 l/m 2 min 0 min 977 W/m 9,0 km/h (2 Bft) 97,87 %
08.07.2018 13:18 24,9 C 32,2 C 22,2 C 55 % 1022,2 hPa 0,0 l/m 2 min 0 min 991 W/m 15,8 km/h (3 Bft) 95,83 %
08.07.2018 13:20 24,9 C 31,1 C 22,2 C 55 % 1022,1 hPa 0,0 l/m 2 min 0 min 981 W/m 11,3 km/h (2 Bft) 93,48 %
08.07.2018 13:22 24,9 C 31,7 C 22,2 C 55 % 1022,1 hPa 0,0 l/m 2 min 0 min 982 W/m 11,3 km/h (2 Bft) 95,74 %
08.07.2018 13:24 24,9 C 30,6 C 22,8 C 54 % 1022,2 hPa 0,0 l/m 2 min 0 min 942 W/m 11,3 km/h (2 Bft) 97,92 %
08.07.2018 13:26 24,9 C 30,6 C 22,2 C 54 % 1022,2 hPa 0,0 l/m 2 min 0 min 913 W/m 13,5 km/h (3 Bft) 97,87 %
08.07.2018 13:28 24,9 C 31,7 C 22,2 C 55 % 1022,2 hPa 0,0 l/m 2 min 0 min 937 W/m 11,3 km/h (2 Bft) 95,74 %
08.07.2018 13:30 24,9 C 32,8 C 22,2 C 55 % 1022,0 hPa 0,0 l/m 2 min 0 min 978 W/m 11,3 km/h (2 Bft) 95,74 %
08.07.2018 13:32 24,9 C 32,2 C 22,2 C 55 % 1022,1 hPa 0,0 l/m 2 min 0 min 1023 W/m 6,8 km/h (2 Bft) 93,48 %
08.07.2018 13:34 24,9 C 29,4 C 22,2 C 55 % 1022,0 hPa 0,0 l/m 2 min 0 min 1007 W/m 6,8 km/h (2 Bft) 97,92 %
08.07.2018 13:36 24,8 C 26,7 C 22,2 C 54 % 1022,1 hPa 0,0 l/m 0 min 0 min 263 W/m 13,5 km/h (3 Bft) 97,87 %
08.07.2018 13:38 24,8 C 25,6 C 21,7 C 54 % 1022,1 hPa 0,0 l/m 0 min 0 min 249 W/m 11,3 km/h (2 Bft) 97,87 %
08.07.2018 13:40 24,7 C 25,0 C 21,7 C 55 % 1022,1 hPa 0,0 l/m 0 min 0 min 258 W/m 9,0 km/h (2 Bft) 97,87 %
08.07.2018 13:42 24,7 C 25,6 C 22,2 C 55 % 1022,1 hPa 0,0 l/m 0 min 0 min 401 W/m 18,0 km/h (3 Bft) 95,65 %
08.07.2018 13:44 24,6 C 25,0 C 22,8 C 54 % 1022,2 hPa 0,0 l/m 2 min 0 min 1007 W/m 15,8 km/h (3 Bft) 97,92 %
08.07.2018 13:46 24,6 C 25,0 C 22,8 C 56 % 1022,1 hPa 0,0 l/m 2 min 0 min 992 W/m 15,8 km/h (3 Bft) 97,87 %
08.07.2018 13:48 24,6 C 25,0 C 22,8 C 55 % 1022,2 hPa 0,0 l/m 2 min 0 min 1028 W/m 13,5 km/h (3 Bft) 97,87 %
08.07.2018 13:50 24,6 C 25,0 C 22,8 C 55 % 1022,1 hPa 0,0 l/m 2 min 0 min 1058 W/m 15,8 km/h (3 Bft) 97,87 %
08.07.2018 13:52 24,6 C 25,0 C 23,3 C 56 % 1022,0 hPa 0,0 l/m 2 min 0 min 1058 W/m 13,5 km/h (3 Bft) 95,74 %
08.07.2018 13:54 24,6 C 25,0 C 22,8 C 55 % 1022,0 hPa 0,0 l/m 2 min 0 min 920 W/m 9,0 km/h (2 Bft) 97,83 %
08.07.2018 13:56 24,6 C 24,4 C 22,2 C 55 % 1022,0 hPa 0,0 l/m 0 min 0 min 290 W/m 13,5 km/h (3 Bft) 97,87 %
08.07.2018 13:58 24,5 C 24,4 C 22,8 C 55 % 1022,0 hPa 0,0 l/m 0 min 0 min 333 W/m 11,3 km/h (2 Bft) 97,87 %
08.07.2018 14:00 24,5 C 25,0 C 22,8 C 55 % 1022,0 hPa 0,0 l/m 2 min 0 min 1066 W/m 18,0 km/h (3 Bft) 97,87 %
08.07.2018 14:02 24,5 C 25,0 C 22,8 C 55 % 1022,0 hPa 0,0 l/m 2 min 0 min 1115 W/m 15,8 km/h (3 Bft) 95,83 %
08.07.2018 14:04 24,5 C 24,4 C 22,8 C 55 % 1022,0 hPa 0,0 l/m 2 min 0 min 695 W/m 13,5 km/h (3 Bft) 97,87 %
08.07.2018 14:06 24,4 C 24,4 C 22,2 C 55 % 1022,0 hPa 0,0 l/m 0 min 0 min 314 W/m 11,3 km/h (2 Bft) 97,87 %
08.07.2018 14:08 24,4 C 24,4 C 22,2 C 55 % 1022,0 hPa 0,0 l/m 0 min 0 min 320 W/m 13,5 km/h (3 Bft) 97,83 %
08.07.2018 14:10 24,4 C 24,4 C 22,2 C 56 % 1021,9 hPa 0,0 l/m 2 min 0 min 662 W/m 9,0 km/h (2 Bft) 97,87 %
08.07.2018 14:12 24,3 C 25,0 C 22,8 C 56 % 1022,0 hPa 0,0 l/m 2 min 0 min 986 W/m 11,3 km/h (2 Bft) 97,87 %
08.07.2018 14:14 24,3 C 24,4 C 22,2 C 55 % 1022,1 hPa 0,0 l/m 2 min 0 min 705 W/m 13,5 km/h (3 Bft) 97,87 %
08.07.2018 14:16 24,3 C 24,4 C 22,2 C 56 % 1022,0 hPa 0,0 l/m 0 min 0 min 286 W/m 6,8 km/h (2 Bft) 97,87 %
08.07.2018 14:18 24,3 C 25,0 C 22,2 C 56 % 1022,0 hPa 0,0 l/m 2 min 0 min 964 W/m 15,8 km/h (3 Bft) 97,87 %
08.07.2018 14:20 24,2 C 25,0 C 22,8 C 56 % 1021,9 hPa 0,0 l/m 2 min 0 min 947 W/m 15,8 km/h (3 Bft) 97,83 %
08.07.2018 14:22 24,2 C 25,0 C 22,8 C 56 % 1022,0 hPa 0,0 l/m 2 min 0 min 952 W/m 20,3 km/h (4 Bft) 97,87 %
08.07.2018 14:24 24,3 C 25,0 C 22,8 C 55 % 1022,0 hPa 0,0 l/m 2 min 0 min 966 W/m 13,5 km/h (3 Bft) 100,00 %
08.07.2018 14:26 24,3 C 25,0 C 22,8 C 55 % 1021,9 hPa 0,0 l/m 2 min 0 min 975 W/m 9,0 km/h (2 Bft) 100,00 %
08.07.2018 14:28 24,3 C 25,6 C 22,8 C 55 % 1021,9 hPa 0,0 l/m 2 min 0 min 965 W/m 18,0 km/h (3 Bft) 100,00 %
08.07.2018 14:30 24,4 C 25,0 C 22,8 C 55 % 1021,9 hPa 0,0 l/m 2 min 0 min 965 W/m 18,0 km/h (3 Bft) 100,00 %
08.07.2018 14:32 24,4 C 25,6 C 22,8 C 56 % 1021,8 hPa 0,0 l/m 2 min 0 min 987 W/m 15,8 km/h (3 Bft) 97,83 %
08.07.2018 14:34 24,4 C 25,6 C 22,8 C 55 % 1021,9 hPa 0,0 l/m 2 min 0 min 1003 W/m 13,5 km/h (3 Bft) 100,00 %
08.07.2018 14:36 24,4 C 25,6 C 22,8 C 55 % 1022,0 hPa 0,0 l/m 2 min 0 min 957 W/m 18,0 km/h (3 Bft) 100,00 %
08.07.2018 14:38 24,5 C 25,6 C 22,8 C 55 % 1021,9 hPa 0,0 l/m 2 min 0 min 952 W/m 11,3 km/h (2 Bft) 100,00 %
08.07.2018 14:40 24,6 C 25,6 C 22,8 C 56 % 1021,9 hPa 0,0 l/m 2 min 0 min 951 W/m 9,0 km/h (2 Bft) 97,87 %
08.07.2018 14:42 24,6 C 25,6 C 22,8 C 55 % 1021,9 hPa 0,0 l/m 2 min 0 min 941 W/m 13,5 km/h (3 Bft) 97,83 %
08.07.2018 14:44 24,7 C 25,0 C 22,8 C 54 % 1021,9 hPa 0,0 l/m 2 min 0 min 942 W/m 11,3 km/h (2 Bft) 97,87 %
08.07.2018 14:46 24,7 C 25,0 C 22,8 C 54 % 1021,9 hPa 0,0 l/m 2 min 0 min 974 W/m 4,5 km/h (1 Bft) 95,74 %
08.07.2018 14:48 24,7 C 24,4 C 22,8 C 54 % 1021,9 hPa 0,0 l/m 2 min 0 min 988 W/m 15,8 km/h (3 Bft) 97,87 %
08.07.2018 14:50 24,7 C 24,4 C 22,8 C 54 % 1021,7 hPa 0,0 l/m 2 min 0 min 962 W/m 15,8 km/h (3 Bft) 97,87 %
08.07.2018 14:52 24,7 C 25,0 C 22,8 C 54 % 1021,8 hPa 0,0 l/m 2 min 0 min 917 W/m 20,3 km/h (4 Bft) 97,92 %
08.07.2018 14:54 24,7 C 25,0 C 22,8 C 54 % 1021,7 hPa 0,0 l/m 2 min 0 min 914 W/m 13,5 km/h (3 Bft) 97,83 %
08.07.2018 14:56 24,8 C 25,0 C 22,8 C 54 % 1021,7 hPa 0,0 l/m 2 min 0 min 926 W/m 11,3 km/h (2 Bft) 95,74 %
08.07.2018 14:58 24,8 C 25,6 C 23,3 C 54 % 1021,7 hPa 0,0 l/m 2 min 0 min 920 W/m 13,5 km/h (3 Bft) 97,87 %
08.07.2018 15:00 24,8 C 25,6 C 23,3 C 54 % 1021,6 hPa 0,0 l/m 2 min 0 min 909 W/m 13,5 km/h (3 Bft) 97,87 %
08.07.2018 15:02 24,9 C 25,6 C 23,3 C 54 % 1021,6 hPa 0,0 l/m 2 min 0 min 902 W/m 15,8 km/h (3 Bft) 95,74 %
08.07.2018 15:04 24,9 C 25,6 C 23,3 C 54 % 1021,6 hPa 0,0 l/m 2 min 0 min 898 W/m 15,8 km/h (3 Bft) 97,87 %
08.07.2018 15:06 25,0 C 25,6 C 23,3 C 54 % 1021,6 hPa 0,0 l/m 2 min 0 min 901 W/m 15,8 km/h (3 Bft) 97,87 %
08.07.2018 15:08 25,0 C 25,0 C 23,3 C 54 % 1021,5 hPa 0,0 l/m 2 min 0 min 926 W/m 18,0 km/h (3 Bft) 97,87 %
08.07.2018 15:10 25,1 C 25,0 C 22,8 C 54 % 1021,6 hPa 0,0 l/m 2 min 0 min 930 W/m 11,3 km/h (2 Bft) 97,87 %
08.07.2018 15:12 25,1 C 25,0 C 22,8 C 53 % 1021,5 hPa 0,0 l/m 2 min 0 min 931 W/m 15,8 km/h (3 Bft) 95,74 %
08.07.2018 15:14 25,1 C 25,6 C 23,3 C 53 % 1021,5 hPa 0,0 l/m 2 min 0 min 900 W/m 18,0 km/h (3 Bft) 97,83 %
08.07.2018 15:16 25,1 C 25,6 C 23,3 C 53 % 1021,6 hPa 0,0 l/m 2 min 0 min 925 W/m 22,5 km/h (4 Bft) 97,87 %
08.07.2018 15:18 25,1 C 25,6 C 23,3 C 53 % 1021,6 hPa 0,0 l/m 2 min 0 min 895 W/m 18,0 km/h (3 Bft) 97,87 %
08.07.2018 15:20 25,2 C 25,6 C 23,3 C 53 % 1021,6 hPa 0,0 l/m 2 min 0 min 880 W/m 11,3 km/h (2 Bft) 95,74 %
08.07.2018 15:22 25,2 C 25,6 C 23,3 C 53 % 1021,6 hPa 0,0 l/m 2 min 0 min 880 W/m 9,0 km/h (2 Bft) 97,92 %
08.07.2018 15:24 25,2 C 25,6 C 23,3 C 54 % 1021,6 hPa 0,0 l/m 2 min 0 min 874 W/m 13,5 km/h (3 Bft) 97,87 %
08.07.2018 15:26 25,2 C 25,6 C 23,3 C 53 % 1021,5 hPa 0,0 l/m 2 min 0 min 871 W/m 11,3 km/h (2 Bft) 97,14 %
08.07.2018 15:28 25,3 C 26,1 C 23,3 C 53 % 1021,5 hPa 0,0 l/m 2 min 0 min 870 W/m 9,0 km/h (2 Bft) 97,87 %
08.07.2018 15:30 25,3 C 26,1 C 23,3 C 53 % 1021,5 hPa 0,0 l/m 2 min 0 min 865 W/m 13,5 km/h (3 Bft) 100,00 %
08.07.2018 15:32 25,4 C 26,1 C 23,9 C 54 % 1021,5 hPa 0,0 l/m 2 min 0 min 865 W/m 13,5 km/h (3 Bft) 97,14 %
08.07.2018 15:34 25,4 C 25,6 C 23,3 C 52 % 1021,5 hPa 0,0 l/m 2 min 0 min 860 W/m 15,8 km/h (3 Bft) 100,00 %
08.07.2018 15:36 25,5 C 26,1 C 23,3 C 53 % 1021,5 hPa 0,0 l/m 2 min 0 min 855 W/m 13,5 km/h (3 Bft) 97,87 %
08.07.2018 15:38 25,5 C 25,6 C 23,3 C 52 % 1021,5 hPa 0,0 l/m 2 min 0 min 863 W/m 15,8 km/h (3 Bft) 100,00 %
08.07.2018 15:40 25,6 C 26,1 C 23,3 C 52 % 1021,4 hPa 0,0 l/m 2 min 0 min 879 W/m 9,0 km/h (2 Bft) 97,22 %
08.07.2018 15:42 25,6 C 26,7 C 23,9 C 52 % 1021,5 hPa 0,0 l/m 2 min 0 min 888 W/m 15,8 km/h (3 Bft) 100,00 %
08.07.2018 15:44 25,6 C 26,7 C 23,9 C 52 % 1021,5 hPa 0,0 l/m 2 min 0 min 880 W/m 15,8 km/h (3 Bft) 97,87 %
08.07.2018 15:46 25,7 C 26,7 C 23,9 C 51 % 1021,4 hPa 0,0 l/m 2 min 0 min 869 W/m 11,3 km/h (2 Bft) 100,00 %
08.07.2018 15:48 25,7 C 28,3 C 23,9 C 53 % 1021,4 hPa 0,0 l/m 2 min 0 min 866 W/m 15,8 km/h (3 Bft) 98,31 %
08.07.2018 15:50 25,8 C 30,6 C 23,9 C 52 % 1021,4 hPa 0,0 l/m 2 min 0 min 843 W/m 11,3 km/h (2 Bft) 97,87 %
08.07.2018 15:52 25,8 C 31,1 C 23,9 C 52 % 1021,4 hPa 0,0 l/m 2 min 0 min 840 W/m 4,5 km/h (1 Bft) 100,00 %
08.07.2018 15:54 25,9 C 31,1 C 23,3 C 51 % 1021,4 hPa 0,0 l/m 2 min 0 min 837 W/m 11,3 km/h (2 Bft) 95,74 %
08.07.2018 15:56 25,9 C 31,7 C 23,9 C 52 % 1021,3 hPa 0,0 l/m 2 min 0 min 830 W/m 9,0 km/h (2 Bft) 97,83 %
08.07.2018 15:58 26,0 C 31,7 C 23,9 C 51 % 1021,3 hPa 0,0 l/m 2 min 0 min 827 W/m 22,5 km/h (4 Bft) 97,87 %
08.07.2018 16:00 26,1 C 31,1 C 23,9 C 51 % 1021,3 hPa 0,0 l/m 2 min 0 min 821 W/m 13,5 km/h (3 Bft) 97,87 %
08.07.2018 16:02 26,1 C 31,1 C 23,9 C 52 % 1021,3 hPa 0,0 l/m 2 min 0 min 819 W/m 9,0 km/h (2 Bft) 97,87 %
08.07.2018 16:04 26,1 C 31,7 C 23,9 C 52 % 1021,3 hPa 0,0 l/m 2 min 0 min 820 W/m 11,3 km/h (2 Bft) 97,87 %
08.07.2018 16:06 26,2 C 31,7 C 23,9 C 51 % 1021,3 hPa 0,0 l/m 2 min 0 min 822 W/m 15,8 km/h (3 Bft) 97,87 %
08.07.2018 16:08 26,2 C 31,1 C 23,9 C 51 % 1021,3 hPa 0,0 l/m 2 min 0 min 813 W/m 20,3 km/h (4 Bft) 97,87 %
08.07.2018 16:10 26,3 C 31,1 C 23,9 C 51 % 1021,3 hPa 0,0 l/m 2 min 0 min 784 W/m 20,3 km/h (4 Bft) 97,87 %
08.07.2018 16:12 26,3 C 31,1 C 23,9 C 51 % 1021,3 hPa 0,0 l/m 2 min 0 min 795 W/m 9,0 km/h (2 Bft) 97,87 %
08.07.2018 16:14 26,3 C 30,6 C 23,9 C 51 % 1021,3 hPa 0,0 l/m 2 min 0 min 802 W/m 18,0 km/h (3 Bft) 97,87 %
08.07.2018 16:16 26,3 C 30,6 C 23,9 C 50 % 1021,3 hPa 0,0 l/m 2 min 0 min 798 W/m 11,3 km/h (2 Bft) 97,87 %
08.07.2018 16:18 26,3 C 30,6 C 23,9 C 50 % 1021,2 hPa 0,0 l/m 2 min 0 min 797 W/m 11,3 km/h (2 Bft) 95,74 %
08.07.2018 16:20 26,3 C 31,1 C 23,9 C 51 % 1021,2 hPa 0,0 l/m 2 min 0 min 792 W/m 4,5 km/h (1 Bft) 95,65 %
08.07.2018 16:22 26,4 C 30,6 C 23,9 C 50 % 1021,2 hPa 0,0 l/m 2 min 0 min 790 W/m 9,0 km/h (2 Bft) 95,74 %
08.07.2018 16:24 26,4 C 30,6 C 24,4 C 49 % 1021,3 hPa 0,0 l/m 2 min 0 min 782 W/m 22,5 km/h (4 Bft) 95,74 %
08.07.2018 16:26 26,4 C 29,4 C 24,4 C 49 % 1021,3 hPa 0,0 l/m 2 min 0 min 773 W/m 20,3 km/h (4 Bft) 97,87 %
08.07.2018 16:28 26,5 C 29,4 C 24,4 C 50 % 1021,2 hPa 0,0 l/m 2 min 0 min 768 W/m 11,3 km/h (2 Bft) 97,87 %
08.07.2018 16:30 26,5 C 29,4 C 23,9 C 49 % 1021,2 hPa 0,0 l/m 2 min 0 min 769 W/m 13,5 km/h (3 Bft) 97,83 %
08.07.2018 16:32 26,5 C 30,0 C 23,9 C 50 % 1021,2 hPa 0,0 l/m 2 min 0 min 764 W/m 9,0 km/h (2 Bft) 95,74 %
08.07.2018 16:34 26,6 C 30,0 C 23,9 C 51 % 1021,2 hPa 0,0 l/m 2 min 0 min 759 W/m 4,5 km/h (1 Bft) 95,74 %
08.07.2018 16:36 26,6 C 30,0 C 24,4 C 49 % 1021,0 hPa 0,0 l/m 2 min 0 min 754 W/m 13,5 km/h (3 Bft) 97,92 %
08.07.2018 16:38 26,6 C 30,0 C 24,4 C 49 % 1021,1 hPa 0,0 l/m 2 min 0 min 748 W/m 11,3 km/h (2 Bft) 97,83 %
08.07.2018 16:40 26,6 C 30,0 C 24,4 C 49 % 1021,0 hPa 0,0 l/m 2 min 0 min 736 W/m 18,0 km/h (3 Bft) 95,74 %
08.07.2018 16:42 26,7 C 30,0 C 24,4 C 50 % 1021,0 hPa 0,0 l/m 2 min 0 min 745 W/m 11,3 km/h (2 Bft) 93,62 %
08.07.2018 16:44 26,7 C 30,0 C 24,4 C 51 % 1020,9 hPa 0,0 l/m 2 min 0 min 744 W/m 13,5 km/h (3 Bft) 95,74 %
08.07.2018 16:46 26,7 C 29,4 C 24,4 C 49 % 1020,9 hPa 0,0 l/m 2 min 0 min 735 W/m 11,3 km/h (2 Bft) 95,74 %
08.07.2018 16:48 26,7 C 29,4 C 24,4 C 49 % 1021,0 hPa 0,0 l/m 2 min 0 min 737 W/m 13,5 km/h (3 Bft) 95,74 %
08.07.2018 16:50 26,8 C 29,4 C 24,4 C 49 % 1021,0 hPa 0,0 l/m 2 min 0 min 733 W/m 11,3 km/h (2 Bft) 93,48 %
08.07.2018 16:52 26,8 C 28,9 C 24,4 C 48 % 1021,1 hPa 0,0 l/m 2 min 0 min 727 W/m 18,0 km/h (3 Bft) 95,74 %
08.07.2018 16:54 26,7 C 28,9 C 24,4 C 49 % 1020,9 hPa 0,0 l/m 2 min 0 min 728 W/m 13,5 km/h (3 Bft) 95,74 %
08.07.2018 16:56 26,8 C 28,9 C 24,4 C 48 % 1020,9 hPa 0,0 l/m 2 min 0 min 726 W/m 6,8 km/h (2 Bft) 95,74 %
08.07.2018 16:58 26,8 C 28,9 C 25,0 C 49 % 1021,0 hPa 0,0 l/m 2 min 0 min 717 W/m 13,5 km/h (3 Bft) 97,87 %
08.07.2018 17:00 26,8 C 29,4 C 25,0 C 49 % 1020,9 hPa 0,0 l/m 2 min 0 min 713 W/m 15,8 km/h (3 Bft) 97,87 %
08.07.2018 17:02 26,8 C 28,9 C 24,4 C 48 % 1020,9 hPa 0,0 l/m 2 min 0 min 710 W/m 18,0 km/h (3 Bft) 97,83 %
08.07.2018 17:04 26,8 C 29,4 C 25,0 C 49 % 1020,8 hPa 0,0 l/m 2 min 0 min 702 W/m 11,3 km/h (2 Bft) 97,87 %
08.07.2018 17:06 26,9 C 29,4 C 24,4 C 48 % 1020,9 hPa 0,0 l/m 2 min 0 min 703 W/m 13,5 km/h (3 Bft) 97,92 %
08.07.2018 17:08 26,9 C 29,4 C 24,4 C 48 % 1020,7 hPa 0,0 l/m 2 min 0 min 702 W/m 13,5 km/h (3 Bft) 97,87 %
08.07.2018 17:10 26,9 C 29,4 C 25,0 C 49 % 1020,7 hPa 0,0 l/m 2 min 0 min 696 W/m 13,5 km/h (3 Bft) 97,87 %
08.07.2018 17:12 26,9 C 28,3 C 24,4 C 48 % 1020,8 hPa 0,0 l/m 2 min 0 min 692 W/m 11,3 km/h (2 Bft) 97,87 %
08.07.2018 17:14 26,9 C 28,3 C 24,4 C 48 % 1020,8 hPa 0,0 l/m 2 min 0 min 687 W/m 9,0 km/h (2 Bft) 97,83 %
08.07.2018 17:16 26,9 C 28,3 C 25,0 C 49 % 1020,7 hPa 0,0 l/m 2 min 0 min 682 W/m 6,8 km/h (2 Bft) 95,74 %
08.07.2018 17:18 27,0 C 27,8 C 25,0 C 48 % 1020,7 hPa 0,0 l/m 2 min 0 min 682 W/m 13,5 km/h (3 Bft) 97,87 %
08.07.2018 17:20 27,0 C 27,2 C 25,0 C 48 % 1020,7 hPa 0,0 l/m 2 min 0 min 680 W/m 11,3 km/h (2 Bft) 95,74 %
08.07.2018 17:22 27,1 C 27,2 C 25,0 C 48 % 1020,7 hPa 0,0 l/m 2 min 0 min 666 W/m 15,8 km/h (3 Bft) 97,87 %
08.07.2018 17:24 27,1 C 27,8 C 25,0 C 48 % 1020,7 hPa 0,0 l/m 2 min 0 min 654 W/m 15,8 km/h (3 Bft) 97,87 %
08.07.2018 17:26 27,1 C 27,8 C 25,0 C 50 % 1020,8 hPa 0,0 l/m 2 min 0 min 651 W/m 11,3 km/h (2 Bft) 95,65 %
08.07.2018 17:28 27,1 C 27,8 C 25,0 C 48 % 1020,8 hPa 0,0 l/m 2 min 0 min 654 W/m 13,5 km/h (3 Bft) 97,87 %
08.07.2018 17:30 27,1 C 27,8 C 25,0 C 47 % 1020,8 hPa 0,0 l/m 2 min 0 min 643 W/m 20,3 km/h (4 Bft) 97,87 %
08.07.2018 17:32 27,1 C 27,8 C 25,0 C 48 % 1020,8 hPa 0,0 l/m 2 min 0 min 635 W/m 18,0 km/h (3 Bft) 97,87 %
08.07.2018 17:34 27,1 C 27,8 C 25,0 C 47 % 1020,8 hPa 0,0 l/m 2 min 0 min 642 W/m 11,3 km/h (2 Bft) 97,92 %
08.07.2018 17:36 27,1 C 27,8 C 25,0 C 47 % 1020,8 hPa 0,0 l/m 2 min 0 min 640 W/m 18,0 km/h (3 Bft) 97,83 %
08.07.2018 17:38 27,1 C 27,2 C 25,0 C 48 % 1020,8 hPa 0,0 l/m 2 min 0 min 632 W/m 18,0 km/h (3 Bft) 93,62 %
08.07.2018 17:40 27,0 C 26,7 C 24,4 C 48 % 1020,8 hPa 0,0 l/m 2 min 0 min 629 W/m 15,8 km/h (3 Bft) 95,74 %
08.07.2018 17:42 26,9 C 27,2 C 25,0 C 49 % 1020,8 hPa 0,0 l/m 2 min 0 min 617 W/m 15,8 km/h (3 Bft) 97,87 %
08.07.2018 17:44 26,9 C 26,7 C 25,0 C 47 % 1020,7 hPa 0,0 l/m 2 min 0 min 606 W/m 11,3 km/h (2 Bft) 97,87 %
08.07.2018 17:46 26,9 C 26,7 C 25,0 C 48 % 1020,7 hPa 0,0 l/m 2 min 0 min 606 W/m 13,5 km/h (3 Bft) 95,74 %
08.07.2018 17:48 26,9 C 27,2 C 25,0 C 47 % 1020,7 hPa 0,0 l/m 2 min 0 min 604 W/m 11,3 km/h (2 Bft) 97,87 %
08.07.2018 17:50 26,9 C 27,2 C 25,0 C 48 % 1020,7 hPa 0,0 l/m 2 min 0 min 568 W/m 9,0 km/h (2 Bft) 97,87 %
08.07.2018 17:52 26,9 C 27,2 C 25,0 C 48 % 1020,7 hPa 0,0 l/m 2 min 0 min 585 W/m 15,8 km/h (3 Bft) 97,83 %
08.07.2018 17:54 26,9 C 26,7 C 25,0 C 48 % 1020,7 hPa 0,0 l/m 2 min 0 min 596 W/m 15,8 km/h (3 Bft) 97,87 %
08.07.2018 17:56 26,9 C 26,7 C 25,0 C 48 % 1020,7 hPa 0,0 l/m 2 min 0 min 582 W/m 11,3 km/h (2 Bft) 97,87 %
08.07.2018 17:58 26,9 C 27,2 C 25,0 C 49 % 1020,7 hPa 0,0 l/m 2 min 0 min 575 W/m 11,3 km/h (2 Bft) 95,74 %
08.07.2018 18:00 26,8 C 27,2 C 25,0 C 48 % 1020,8 hPa 0,0 l/m 2 min 0 min 571 W/m 11,3 km/h (2 Bft) 97,87 %
08.07.2018 18:02 26,9 C 26,7 C 25,0 C 48 % 1020,7 hPa 0,0 l/m 2 min 0 min 568 W/m 18,0 km/h (3 Bft) 97,87 %
08.07.2018 18:04 26,8 C 26,7 C 25,0 C 47 % 1020,7 hPa 0,0 l/m 2 min 0 min 567 W/m 15,8 km/h (3 Bft) 97,83 %
08.07.2018 18:08 26,8 C 26,7 C 25,0 C 48 % 1020,6 hPa 0,0 l/m 4 min 0 min 557 W/m 15,8 km/h (3 Bft) 96,88 %
08.07.2018 18:10 26,8 C 26,7 C 25,0 C 48 % 1020,5 hPa 0,0 l/m 2 min 0 min 549 W/m 15,8 km/h (3 Bft) 97,87 %
08.07.2018 18:12 26,8 C 26,7 C 25,0 C 48 % 1020,7 hPa 0,0 l/m 2 min 0 min 459 W/m 13,5 km/h (3 Bft) 97,87 %
08.07.2018 18:14 26,8 C 26,7 C 25,0 C 48 % 1020,6 hPa 0,0 l/m 2 min 0 min 526 W/m 11,3 km/h (2 Bft) 95,74 %
08.07.2018 18:16 26,8 C 26,7 C 25,0 C 47 % 1020,7 hPa 0,0 l/m 2 min 0 min 540 W/m 9,0 km/h (2 Bft) 97,87 %
08.07.2018 18:18 26,7 C 26,7 C 25,0 C 48 % 1020,6 hPa 0,0 l/m 2 min 0 min 540 W/m 11,3 km/h (2 Bft) 95,74 %
08.07.2018 18:20 26,7 C 26,7 C 25,0 C 48 % 1020,6 hPa 0,0 l/m 2 min 0 min 532 W/m 13,5 km/h (3 Bft) 100,00 %
08.07.2018 18:22 26,7 C 26,7 C 25,0 C 48 % 1020,5 hPa 0,0 l/m 2 min 0 min 530 W/m 11,3 km/h (2 Bft) 100,00 %
08.07.2018 18:24 26,7 C 26,7 C 25,0 C 48 % 1020,5 hPa 0,0 l/m 2 min 0 min 518 W/m 13,5 km/h (3 Bft) 100,00 %
08.07.2018 18:26 26,7 C 26,7 C 25,0 C 48 % 1020,6 hPa 0,0 l/m 2 min 0 min 495 W/m 13,5 km/h (3 Bft) 100,00 %
08.07.2018 18:28 26,7 C 26,7 C 25,0 C 48 % 1020,6 hPa 0,0 l/m 2 min 0 min 514 W/m 11,3 km/h (2 Bft) 97,87 %
08.07.2018 18:30 26,6 C 26,7 C 25,0 C 48 % 1020,6 hPa 0,0 l/m 2 min 0 min 510 W/m 11,3 km/h (2 Bft) 100,00 %
08.07.2018 18:32 26,7 C 26,7 C 25,0 C 48 % 1020,5 hPa 0,0 l/m 2 min 0 min 503 W/m 9,0 km/h (2 Bft) 100,00 %
08.07.2018 18:34 26,7 C 26,7 C 25,0 C 49 % 1020,5 hPa 0,0 l/m 2 min 0 min 498 W/m 6,8 km/h (2 Bft) 100,00 %
08.07.2018 18:36 26,7 C 26,7 C 25,0 C 48 % 1020,5 hPa 0,0 l/m 2 min 0 min 490 W/m 11,3 km/h (2 Bft) 97,87 %
08.07.2018 18:38 26,7 C 26,7 C 25,0 C 48 % 1020,5 hPa 0,0 l/m 2 min 0 min 487 W/m 11,3 km/h (2 Bft) 100,00 %
08.07.2018 18:40 26,7 C 26,7 C 25,0 C 48 % 1020,5 hPa 0,0 l/m 2 min 0 min 480 W/m 18,0 km/h (3 Bft) 100,00 %
08.07.2018 18:42 26,7 C 26,7 C 25,0 C 48 % 1020,5 hPa 0,0 l/m 2 min 0 min 475 W/m 15,8 km/h (3 Bft) 100,00 %
08.07.2018 18:44 26,7 C 26,7 C 25,0 C 49 % 1020,5 hPa 0,0 l/m 2 min 0 min 476 W/m 11,3 km/h (2 Bft) 100,00 %
08.07.2018 18:46 26,7 C 26,7 C 25,0 C 48 % 1020,5 hPa 0,0 l/m 2 min 0 min 463 W/m 11,3 km/h (2 Bft) 100,00 %
08.07.2018 18:48 26,7 C 26,7 C 25,0 C 49 % 1020,5 hPa 0,0 l/m 2 min 0 min 456 W/m 6,8 km/h (2 Bft) 100,00 %
08.07.2018 18:50 26,7 C 26,1 C 25,0 C 48 % 1020,6 hPa 0,0 l/m 2 min 0 min 455 W/m 11,3 km/h (2 Bft) 100,00 %
08.07.2018 18:52 26,6 C 26,7 C 25,0 C 48 % 1020,5 hPa 0,0 l/m 2 min 0 min 446 W/m 9,0 km/h (2 Bft) 100,00 %
08.07.2018 18:54 26,6 C 26,1 C 25,0 C 48 % 1020,5 hPa 0,0 l/m 2 min 0 min 439 W/m 11,3 km/h (2 Bft) 100,00 %
08.07.2018 18:56 26,6 C 26,1 C 25,0 C 48 % 1020,5 hPa 0,0 l/m 2 min 0 min 433 W/m 18,0 km/h (3 Bft) 100,00 %
08.07.2018 18:58 26,6 C 26,7 C 25,0 C 49 % 1020,5 hPa 0,0 l/m 2 min 0 min 428 W/m 9,0 km/h (2 Bft) 100,00 %
08.07.2018 19:00 26,6 C 26,7 C 25,0 C 50 % 1020,4 hPa 0,0 l/m 2 min 0 min 418 W/m 6,8 km/h (2 Bft) 100,00 %
08.07.2018 19:02 26,6 C 26,7 C 25,0 C 48 % 1020,5 hPa 0,0 l/m 2 min 0 min 411 W/m 20,3 km/h (4 Bft) 100,00 %
08.07.2018 19:04 26,6 C 26,1 C 24,4 C 48 % 1020,5 hPa 0,0 l/m 2 min 0 min 404 W/m 18,0 km/h (3 Bft) 100,00 %
08.07.2018 19:06 26,6 C 26,1 C 24,4 C 48 % 1020,5 hPa 0,0 l/m 2 min 0 min 396 W/m 15,8 km/h (3 Bft) 100,00 %
08.07.2018 19:08 26,6 C 26,1 C 24,4 C 49 % 1020,5 hPa 0,0 l/m 2 min 0 min 396 W/m 11,3 km/h (2 Bft) 100,00 %
08.07.2018 19:10 26,5 C 26,1 C 24,4 C 49 % 1020,5 hPa 0,0 l/m 2 min 0 min 364 W/m 6,8 km/h (2 Bft) 100,00 %
08.07.2018 19:12 26,4 C 26,1 C 24,4 C 49 % 1020,4 hPa 0,0 l/m 2 min 0 min 352 W/m 6,8 km/h (2 Bft) 100,00 %
08.07.2018 19:14 26,4 C 26,1 C 24,4 C 48 % 1020,5 hPa 0,0 l/m 2 min 0 min 351 W/m 15,8 km/h (3 Bft) 100,00 %
08.07.2018 19:16 26,4 C 26,1 C 24,4 C 48 % 1020,5 hPa 0,0 l/m 2 min 0 min 370 W/m 11,3 km/h (2 Bft) 100,00 %
08.07.2018 19:18 26,3 C 26,1 C 24,4 C 49 % 1020,4 hPa 0,0 l/m 2 min 0 min 366 W/m 9,0 km/h (2 Bft) 100,00 %
08.07.2018 19:20 26,3 C 25,6 C 23,9 C 48 % 1020,5 hPa 0,0 l/m 2 min 0 min 360 W/m 22,5 km/h (4 Bft) 100,00 %
08.07.2018 19:22 26,2 C 25,6 C 23,9 C 48 % 1020,5 hPa 0,0 l/m 2 min 0 min 355 W/m 11,3 km/h (2 Bft) 100,00 %
08.07.2018 19:24 26,2 C 25,6 C 23,9 C 48 % 1020,5 hPa 0,0 l/m 2 min 0 min 351 W/m 6,8 km/h (2 Bft) 100,00 %
08.07.2018 19:26 26,1 C 25,6 C 23,9 C 49 % 1020,5 hPa 0,0 l/m 2 min 0 min 347 W/m 11,3 km/h (2 Bft) 100,00 %
08.07.2018 19:28 26,1 C 25,6 C 23,9 C 48 % 1020,5 hPa 0,0 l/m 2 min 0 min 342 W/m 9,0 km/h (2 Bft) 97,87 %
08.07.2018 19:30 26,0 C 25,6 C 23,9 C 49 % 1020,4 hPa 0,0 l/m 2 min 0 min 331 W/m 15,8 km/h (3 Bft) 97,87 %
08.07.2018 19:32 26,0 C 25,6 C 23,9 C 49 % 1020,4 hPa 0,0 l/m 2 min 0 min 323 W/m 13,5 km/h (3 Bft) 100,00 %
08.07.2018 19:34 25,9 C 25,0 C 23,9 C 48 % 1020,4 hPa 0,0 l/m 2 min 0 min 320 W/m 15,8 km/h (3 Bft) 100,00 %
08.07.2018 19:36 25,9 C 25,0 C 23,9 C 49 % 1020,4 hPa 0,0 l/m 2 min 0 min 315 W/m 15,8 km/h (3 Bft) 100,00 %
08.07.2018 19:38 25,8 C 25,0 C 23,9 C 49 % 1020,4 hPa 0,0 l/m 2 min 0 min 309 W/m 11,3 km/h (2 Bft) 95,74 %
08.07.2018 19:40 25,8 C 25,0 C 23,9 C 49 % 1020,4 hPa 0,0 l/m 2 min 0 min 305 W/m 6,8 km/h (2 Bft) 100,00 %
08.07.2018 19:42 25,7 C 25,0 C 23,9 C 49 % 1020,5 hPa 0,0 l/m 2 min 0 min 298 W/m 18,0 km/h (3 Bft) 97,87 %
08.07.2018 19:44 25,7 C 25,0 C 23,3 C 49 % 1020,4 hPa 0,0 l/m 2 min 0 min 295 W/m 11,3 km/h (2 Bft) 97,92 %
08.07.2018 19:46 25,7 C 25,0 C 23,3 C 49 % 1020,4 hPa 0,0 l/m 2 min 0 min 287 W/m 6,8 km/h (2 Bft) 95,74 %
08.07.2018 19:48 25,6 C 25,0 C 23,3 C 49 % 1020,4 hPa 0,0 l/m 2 min 0 min 283 W/m 6,8 km/h (2 Bft) 95,65 %
08.07.2018 19:50 25,5 C 25,0 C 23,9 C 49 % 1020,4 hPa 0,0 l/m 2 min 0 min 275 W/m 11,3 km/h (2 Bft) 97,92 %
08.07.2018 19:52 25,4 C 24,4 C 23,3 C 50 % 1020,4 hPa 0,0 l/m 2 min 0 min 268 W/m 15,8 km/h (3 Bft) 97,87 %
08.07.2018 19:54 25,4 C 24,4 C 23,3 C 50 % 1020,4 hPa 0,0 l/m 2 min 0 min 235 W/m 13,5 km/h (3 Bft) 97,87 %
08.07.2018 19:56 25,3 C 24,4 C 23,3 C 50 % 1020,4 hPa 0,0 l/m 0 min 0 min 118 W/m 11,3 km/h (2 Bft) 95,74 %
08.07.2018 19:58 25,3 C 24,4 C 23,3 C 50 % 1020,4 hPa 0,0 l/m 0 min 0 min 55 W/m 13,5 km/h (3 Bft) 93,48 %
08.07.2018 20:00 25,2 C 24,4 C 23,3 C 50 % 1020,4 hPa 0,0 l/m 0 min 0 min 53 W/m 20,3 km/h (4 Bft) 95,74 %
08.07.2018 20:02 25,1 C 24,4 C 23,3 C 51 % 1020,4 hPa 0,0 l/m 0 min 0 min 53 W/m 13,5 km/h (3 Bft) 95,74 %
08.07.2018 20:04 25,1 C 24,4 C 23,3 C 51 % 1020,4 hPa 0,0 l/m 0 min 0 min 51 W/m 9,0 km/h (2 Bft) 97,87 %
08.07.2018 20:06 25,1 C 23,9 C 23,3 C 51 % 1020,4 hPa 0,0 l/m 0 min 0 min 50 W/m 15,8 km/h (3 Bft) 95,83 %
08.07.2018 20:08 25,0 C 23,9 C 23,3 C 51 % 1020,4 hPa 0,0 l/m 0 min 0 min 49 W/m 13,5 km/h (3 Bft) 93,62 %
08.07.2018 20:10 24,9 C 23,9 C 23,3 C 51 % 1020,4 hPa 0,0 l/m 0 min 0 min 49 W/m 13,5 km/h (3 Bft) 93,62 %
08.07.2018 20:12 24,9 C 23,9 C 23,3 C 51 % 1020,4 hPa 0,0 l/m 0 min 0 min 47 W/m 13,5 km/h (3 Bft) 95,65 %
08.07.2018 20:14 24,8 C 23,9 C 23,3 C 51 % 1020,4 hPa 0,0 l/m 0 min 0 min 47 W/m 13,5 km/h (3 Bft) 93,62 %
08.07.2018 20:16 24,8 C 23,9 C 22,8 C 51 % 1020,4 hPa 0,0 l/m 0 min 0 min 46 W/m 11,3 km/h (2 Bft) 93,62 %
08.07.2018 20:18 24,7 C 23,9 C 22,8 C 51 % 1020,4 hPa 0,0 l/m 0 min 0 min 45 W/m 11,3 km/h (2 Bft) 91,49 %
08.07.2018 20:20 24,7 C 23,9 C 22,8 C 52 % 1020,4 hPa 0,0 l/m 0 min 0 min 44 W/m 6,8 km/h (2 Bft) 93,62 %
08.07.2018 20:22 24,7 C 23,9 C 22,8 C 52 % 1020,4 hPa 0,0 l/m 0 min 0 min 42 W/m 6,8 km/h (2 Bft) 93,75 %
08.07.2018 20:24 24,6 C 23,9 C 22,8 C 52 % 1020,3 hPa 0,0 l/m 0 min 0 min 42 W/m 9,0 km/h (2 Bft) 93,48 %
08.07.2018 20:26 24,6 C 23,3 C 22,8 C 51 % 1020,3 hPa 0,0 l/m 0 min 0 min 41 W/m 9,0 km/h (2 Bft) 93,62 %
08.07.2018 20:28 24,6 C 23,3 C 22,8 C 52 % 1020,3 hPa 0,0 l/m 0 min 0 min 40 W/m 9,0 km/h (2 Bft) 93,62 %
08.07.2018 20:30 24,6 C 23,3 C 22,8 C 52 % 1020,3 hPa 0,0 l/m 0 min 0 min 40 W/m 6,8 km/h (2 Bft) 95,74 %
08.07.2018 20:32 24,5 C 23,3 C 22,8 C 52 % 1020,4 hPa 0,0 l/m 0 min 0 min 39 W/m 6,8 km/h (2 Bft) 93,62 %
08.07.2018 20:34 24,4 C 23,3 C 22,8 C 52 % 1020,3 hPa 0,0 l/m 0 min 0 min 37 W/m 13,5 km/h (3 Bft) 91,49 %
08.07.2018 20:36 24,4 C 23,3 C 22,8 C 53 % 1020,3 hPa 0,0 l/m 0 min 0 min 37 W/m 11,3 km/h (2 Bft) 95,74 %
08.07.2018 20:38 24,4 C 23,3 C 22,8 C 53 % 1020,3 hPa 0,0 l/m 0 min 0 min 36 W/m 18,0 km/h (3 Bft) 93,62 %
08.07.2018 20:40 24,3 C 23,3 C 22,8 C 53 % 1020,3 hPa 0,0 l/m 0 min 0 min 35 W/m 6,8 km/h (2 Bft) 93,62 %
08.07.2018 20:42 24,3 C 22,8 C 22,8 C 53 % 1020,2 hPa 0,0 l/m 0 min 0 min 34 W/m 6,8 km/h (2 Bft) 93,62 %
08.07.2018 20:44 24,2 C 22,8 C 22,8 C 53 % 1020,3 hPa 0,0 l/m 0 min 0 min 33 W/m 15,8 km/h (3 Bft) 93,62 %
08.07.2018 20:46 24,2 C 22,8 C 22,8 C 53 % 1020,3 hPa 0,0 l/m 0 min 0 min 33 W/m 13,5 km/h (3 Bft) 95,74 %
08.07.2018 20:48 24,1 C 22,8 C 22,2 C 54 % 1020,3 hPa 0,0 l/m 0 min 0 min 32 W/m 6,8 km/h (2 Bft) 93,48 %
08.07.2018 20:50 24,1 C 22,8 C 22,2 C 54 % 1020,4 hPa 0,0 l/m 0 min 0 min 31 W/m 11,3 km/h (2 Bft) 95,74 %
08.07.2018 20:52 24,0 C 22,8 C 22,2 C 54 % 1020,3 hPa 0,0 l/m 0 min 0 min 30 W/m 4,5 km/h (1 Bft) 96,08 %
08.07.2018 20:54 23,9 C 22,8 C 22,2 C 54 % 1020,3 hPa 0,0 l/m 0 min 0 min 28 W/m 9,0 km/h (2 Bft) 97,87 %
08.07.2018 20:56 23,9 C 22,8 C 22,2 C 54 % 1020,3 hPa 0,0 l/m 0 min 0 min 28 W/m 18,0 km/h (3 Bft) 93,48 %
08.07.2018 20:58 23,9 C 22,8 C 22,2 C 54 % 1020,4 hPa 0,0 l/m 0 min 0 min 26 W/m 13,5 km/h (3 Bft) 93,62 %
08.07.2018 21:00 23,8 C 22,8 C 22,2 C 54 % 1020,5 hPa 0,0 l/m 0 min 0 min 25 W/m 11,3 km/h (2 Bft) 97,87 %
08.07.2018 21:02 23,8 C 22,8 C 22,2 C 54 % 1020,4 hPa 0,0 l/m 0 min 0 min 25 W/m 11,3 km/h (2 Bft) 95,74 %
08.07.2018 21:04 23,7 C 22,8 C 22,2 C 54 % 1020,5 hPa 0,0 l/m 0 min 0 min 25 W/m 6,8 km/h (2 Bft) 100,00 %
08.07.2018 21:06 23,7 C 22,8 C 22,2 C 54 % 1020,4 hPa 0,0 l/m 0 min 0 min 23 W/m 4,5 km/h (1 Bft) 100,00 %
08.07.2018 21:08 23,7 C 22,2 C 22,2 C 55 % 1020,4 hPa 0,0 l/m 0 min 0 min 23 W/m 4,5 km/h (1 Bft) 97,87 %
08.07.2018 21:10 23,6 C 22,2 C 22,2 C 55 % 1020,5 hPa 0,0 l/m 0 min 0 min 21 W/m 9,0 km/h (2 Bft) 100,00 %
08.07.2018 21:12 23,6 C 22,2 C 21,7 C 55 % 1020,6 hPa 0,0 l/m 0 min 0 min 21 W/m 9,0 km/h (2 Bft) 97,87 %
08.07.2018 21:14 23,6 C 22,2 C 21,7 C 55 % 1020,6 hPa 0,0 l/m 0 min 0 min 20 W/m 2,3 km/h (1 Bft) 100,00 %
08.07.2018 21:16 23,5 C 22,2 C 21,7 C 55 % 1020,5 hPa 0,0 l/m 0 min 0 min 19 W/m 9,0 km/h (2 Bft) 100,00 %
08.07.2018 21:18 23,4 C 22,2 C 21,7 C 56 % 1020,6 hPa 0,0 l/m 0 min 0 min 18 W/m 4,5 km/h (1 Bft) 100,00 %
08.07.2018 21:20 23,4 C 22,2 C 21,7 C 56 % 1020,5 hPa 0,0 l/m 0 min 0 min 18 W/m 4,5 km/h (1 Bft) 100,00 %
08.07.2018 21:22 23,3 C 22,2 C 21,7 C 56 % 1020,5 hPa 0,0 l/m 0 min 0 min 16 W/m 9,0 km/h (2 Bft) 100,00 %
08.07.2018 21:24 23,3 C 22,2 C 21,7 C 56 % 1020,5 hPa 0,0 l/m 0 min 0 min 16 W/m 9,0 km/h (2 Bft) 100,00 %
08.07.2018 21:26 23,2 C 21,7 C 21,7 C 56 % 1020,5 hPa 0,0 l/m 0 min 0 min 15 W/m 11,3 km/h (2 Bft) 100,00 %
08.07.2018 21:28 23,2 C 21,7 C 21,7 C 56 % 1020,6 hPa 0,0 l/m 0 min 0 min 14 W/m 9,0 km/h (2 Bft) 100,00 %
08.07.2018 21:30 23,1 C 21,7 C 21,7 C 57 % 1020,5 hPa 0,0 l/m 0 min 0 min 13 W/m 6,8 km/h (2 Bft) 100,00 %
08.07.2018 21:32 23,1 C 21,7 C 21,7 C 57 % 1020,5 hPa 0,0 l/m 0 min 0 min 12 W/m 11,3 km/h (2 Bft) 97,83 %
08.07.2018 21:34 23,1 C 21,7 C 21,7 C 57 % 1020,5 hPa 0,0 l/m 0 min 0 min 12 W/m 9,0 km/h (2 Bft) 100,00 %
08.07.2018 21:36 23,1 C 21,7 C 21,7 C 57 % 1020,5 hPa 0,0 l/m 0 min 0 min 11 W/m 4,5 km/h (1 Bft) 100,00 %
08.07.2018 21:38 23,0 C 21,7 C 21,7 C 57 % 1020,6 hPa 0,0 l/m 0 min 0 min 11 W/m 4,5 km/h (1 Bft) 100,00 %
08.07.2018 21:40 22,9 C 21,7 C 21,1 C 58 % 1020,6 hPa 0,0 l/m 0 min 0 min 9 W/m 6,8 km/h (2 Bft) 100,00 %
08.07.2018 21:42 22,9 C 21,1 C 21,1 C 58 % 1020,6 hPa 0,0 l/m 0 min 0 min 9 W/m 9,0 km/h (2 Bft) 100,00 %
08.07.2018 21:44 22,8 C 21,1 C 21,1 C 58 % 1020,7 hPa 0,0 l/m 0 min 0 min 8 W/m 4,5 km/h (1 Bft) 97,83 %
08.07.2018 21:46 22,8 C 21,1 C 21,1 C 58 % 1020,7 hPa 0,0 l/m 0 min 0 min 7 W/m 4,5 km/h (1 Bft) 97,87 %
08.07.2018 21:48 22,7 C 21,1 C 21,1 C 58 % 1020,6 hPa 0,0 l/m 0 min 0 min 7 W/m 6,8 km/h (2 Bft) 100,00 %
08.07.2018 21:52 22,6 C 21,1 C 21,1 C 58 % 1020,7 hPa 0,0 l/m 0 min 0 min 5 W/m 9,0 km/h (2 Bft) 100,00 %
08.07.2018 21:54 22,6 C 21,1 C 21,1 C 58 % 1020,7 hPa 0,0 l/m 0 min 0 min 5 W/m 6,8 km/h (2 Bft) 100,00 %
08.07.2018 21:56 22,6 C 21,1 C 21,1 C 59 % 1020,7 hPa 0,0 l/m 0 min 0 min 5 W/m 9,0 km/h (2 Bft) 97,87 %
08.07.2018 21:58 22,5 C 20,6 C 20,6 C 59 % 1020,7 hPa 0,0 l/m 0 min 0 min 0 W/m 6,8 km/h (2 Bft) 100,00 %
08.07.2018 22:00 22,4 C 20,6 C 20,6 C 59 % 1020,7 hPa 0,0 l/m 0 min 0 min 0 W/m 9,0 km/h (2 Bft) 100,00 %
08.07.2018 22:02 22,3 C 20,6 C 20,6 C 60 % 1020,8 hPa 0,0 l/m 0 min 0 min 0 W/m 6,8 km/h (2 Bft) 97,87 %
08.07.2018 22:04 22,3 C 20,6 C 20,6 C 60 % 1020,8 hPa 0,0 l/m 0 min 0 min 0 W/m 6,8 km/h (2 Bft) 97,87 %
08.07.2018 22:06 22,2 C 20,6 C 20,6 C 60 % 1020,9 hPa 0,0 l/m 0 min 0 min 0 W/m 6,8 km/h (2 Bft) 100,00 %
08.07.2018 22:08 22,2 C 20,6 C 20,6 C 60 % 1020,8 hPa 0,0 l/m 0 min 0 min 0 W/m 9,0 km/h (2 Bft) 97,83 %
08.07.2018 22:10 22,1 C 20,6 C 20,6 C 60 % 1020,8 hPa 0,0 l/m 0 min 0 min 0 W/m 11,3 km/h (2 Bft) 100,00 %
08.07.2018 22:12 22,1 C 20,6 C 20,6 C 60 % 1020,8 hPa 0,0 l/m 0 min 0 min 0 W/m 4,5 km/h (1 Bft) 100,00 %
08.07.2018 22:14 22,0 C 20,0 C 20,6 C 60 % 1020,8 hPa 0,0 l/m 0 min 0 min 0 W/m 9,0 km/h (2 Bft) 100,00 %
08.07.2018 22:16 21,9 C 20,0 C 20,6 C 61 % 1020,8 hPa 0,0 l/m 0 min 0 min 0 W/m 6,8 km/h (2 Bft) 100,00 %
08.07.2018 22:18 21,9 C 20,0 C 20,6 C 61 % 1020,8 hPa 0,0 l/m 0 min 0 min 0 W/m 11,3 km/h (2 Bft) 100,00 %
08.07.2018 22:20 21,8 C 20,0 C 20,0 C 61 % 1020,9 hPa 0,0 l/m 0 min 0 min 0 W/m 6,8 km/h (2 Bft) 100,00 %
08.07.2018 22:22 21,7 C 20,0 C 20,0 C 61 % 1020,9 hPa 0,0 l/m 0 min 0 min 0 W/m 11,3 km/h (2 Bft) 100,00 %
08.07.2018 22:24 21,7 C 20,0 C 20,0 C 61 % 1020,9 hPa 0,0 l/m 0 min 0 min 0 W/m 9,0 km/h (2 Bft) 100,00 %
08.07.2018 22:26 21,6 C 20,0 C 20,0 C 62 % 1021,0 hPa 0,0 l/m 0 min 0 min 0 W/m 4,5 km/h (1 Bft) 100,00 %
08.07.2018 22:28 21,6 C 20,0 C 20,0 C 62 % 1021,0 hPa 0,0 l/m 0 min 0 min 0 W/m 6,8 km/h (2 Bft) 97,87 %
08.07.2018 22:30 21,6 C 20,0 C 20,0 C 62 % 1021,1 hPa 0,0 l/m 0 min 0 min 0 W/m 6,8 km/h (2 Bft) 100,00 %
08.07.2018 22:32 21,5 C 20,0 C 20,0 C 62 % 1021,0 hPa 0,0 l/m 0 min 0 min 0 W/m 6,8 km/h (2 Bft) 100,00 %
08.07.2018 22:34 21,4 C 20,0 C 20,0 C 62 % 1021,1 hPa 0,0 l/m 0 min 0 min 0 W/m 6,8 km/h (2 Bft) 100,00 %
08.07.2018 22:36 21,3 C 20,0 C 20,0 C 63 % 1021,1 hPa 0,0 l/m 0 min 0 min 0 W/m 11,3 km/h (2 Bft) 100,00 %
08.07.2018 22:38 21,3 C 19,4 C 20,0 C 63 % 1021,1 hPa 0,0 l/m 0 min 0 min 0 W/m 9,0 km/h (2 Bft) 100,00 %
08.07.2018 22:40 21,3 C 19,4 C 20,0 C 63 % 1021,1 hPa 0,0 l/m 0 min 0 min 0 W/m 11,3 km/h (2 Bft) 97,87 %
08.07.2018 22:42 21,2 C 19,4 C 19,4 C 64 % 1021,1 hPa 0,0 l/m 0 min 0 min 0 W/m 9,0 km/h (2 Bft) 97,87 %
08.07.2018 22:44 21,2 C 19,4 C 19,4 C 64 % 1021,1 hPa 0,0 l/m 0 min 0 min 0 W/m 9,0 km/h (2 Bft) 97,83 %
08.07.2018 22:46 21,1 C 19,4 C 19,4 C 64 % 1021,1 hPa 0,0 l/m 0 min 0 min 0 W/m 9,0 km/h (2 Bft) 95,74 %
08.07.2018 22:48 21,1 C 19,4 C 19,4 C 64 % 1021,1 hPa 0,0 l/m 0 min 0 min 0 W/m 9,0 km/h (2 Bft) 97,87 %
08.07.2018 22:50 21,0 C 19,4 C 19,4 C 64 % 1021,1 hPa 0,0 l/m 0 min 0 min 0 W/m 9,0 km/h (2 Bft) 100,00 %
08.07.2018 22:52 20,9 C 19,4 C 19,4 C 65 % 1021,1 hPa 0,0 l/m 0 min 0 min 0 W/m 11,3 km/h (2 Bft) 96,23 %
08.07.2018 22:54 20,9 C 19,4 C 19,4 C 65 % 1021,1 hPa 0,0 l/m 0 min 0 min 0 W/m 11,3 km/h (2 Bft) 100,00 %
08.07.2018 22:56 20,8 C 19,4 C 19,4 C 65 % 1021,1 hPa 0,0 l/m 0 min 0 min 0 W/m 20,3 km/h (4 Bft) 95,74 %
08.07.2018 22:58 20,8 C 19,4 C 19,4 C 65 % 1021,1 hPa 0,0 l/m 0 min 0 min 0 W/m 9,0 km/h (2 Bft) 95,74 %
08.07.2018 23:00 20,7 C 19,4 C 19,4 C 66 % 1021,1 hPa 0,0 l/m 0 min 0 min 0 W/m 13,5 km/h (3 Bft) 95,74 %
08.07.2018 23:02 20,7 C 19,4 C 19,4 C 66 % 1021,1 hPa 0,0 l/m 0 min 0 min 0 W/m 11,3 km/h (2 Bft) 93,62 %
08.07.2018 23:04 20,6 C 19,4 C 19,4 C 66 % 1021,2 hPa 0,0 l/m 0 min 0 min 0 W/m 9,0 km/h (2 Bft) 95,74 %
08.07.2018 23:06 20,6 C 19,4 C 19,4 C 66 % 1021,2 hPa 0,0 l/m 0 min 0 min 0 W/m 4,5 km/h (1 Bft) 95,65 %
08.07.2018 23:08 20,5 C 19,4 C 19,4 C 67 % 1021,2 hPa 0,0 l/m 0 min 0 min 0 W/m 9,0 km/h (2 Bft) 93,62 %
08.07.2018 23:10 20,4 C 19,4 C 19,4 C 67 % 1021,2 hPa 0,0 l/m 0 min 0 min 0 W/m 20,3 km/h (4 Bft) 95,74 %
08.07.2018 23:12 20,4 C 18,9 C 18,9 C 67 % 1021,2 hPa 0,0 l/m 0 min 0 min 0 W/m 9,0 km/h (2 Bft) 89,36 %
08.07.2018 23:14 20,4 C 18,9 C 18,9 C 67 % 1021,2 hPa 0,0 l/m 0 min 0 min 0 W/m 15,8 km/h (3 Bft) 93,62 %
08.07.2018 23:16 20,4 C 18,9 C 18,9 C 67 % 1021,2 hPa 0,0 l/m 0 min 0 min 0 W/m 6,8 km/h (2 Bft) 93,62 %
08.07.2018 23:18 20,3 C 18,9 C 18,9 C 68 % 1021,2 hPa 0,0 l/m 0 min 0 min 0 W/m 11,3 km/h (2 Bft) 93,48 %
08.07.2018 23:20 20,3 C 18,9 C 18,9 C 68 % 1021,2 hPa 0,0 l/m 0 min 0 min 0 W/m 9,0 km/h (2 Bft) 93,62 %
08.07.2018 23:22 20,2 C 18,9 C 18,9 C 68 % 1021,2 hPa 0,0 l/m 0 min 0 min 0 W/m 9,0 km/h (2 Bft) 91,49 %
08.07.2018 23:24 20,2 C 18,9 C 18,9 C 68 % 1021,2 hPa 0,0 l/m 0 min 0 min 0 W/m 9,0 km/h (2 Bft) 93,62 %
08.07.2018 23:26 20,2 C 18,9 C 18,9 C 68 % 1021,2 hPa 0,0 l/m 0 min 0 min 0 W/m 13,5 km/h (3 Bft) 91,49 %
08.07.2018 23:28 20,2 C 18,9 C 18,9 C 68 % 1021,2 hPa 0,0 l/m 0 min 0 min 0 W/m 13,5 km/h (3 Bft) 93,62 %
08.07.2018 23:30 20,1 C 18,9 C 18,9 C 69 % 1021,3 hPa 0,0 l/m 0 min 0 min 0 W/m 11,3 km/h (2 Bft) 91,30 %
08.07.2018 23:32 20,1 C 18,9 C 18,9 C 69 % 1021,2 hPa 0,0 l/m 0 min 0 min 0 W/m 11,3 km/h (2 Bft) 95,74 %
08.07.2018 23:34 20,1 C 18,9 C 18,9 C 69 % 1021,3 hPa 0,0 l/m 0 min 0 min 0 W/m 6,8 km/h (2 Bft) 93,62 %
08.07.2018 23:36 20,0 C 18,9 C 18,9 C 69 % 1021,3 hPa 0,0 l/m 0 min 0 min 0 W/m 11,3 km/h (2 Bft) 93,62 %
08.07.2018 23:38 20,0 C 18,9 C 18,9 C 69 % 1021,3 hPa 0,0 l/m 0 min 0 min 0 W/m 11,3 km/h (2 Bft) 93,62 %
08.07.2018 23:40 19,9 C 18,9 C 18,9 C 69 % 1021,3 hPa 0,0 l/m 0 min 0 min 0 W/m 6,8 km/h (2 Bft) 93,62 %
08.07.2018 23:42 19,9 C 18,9 C 18,9 C 69 % 1021,3 hPa 0,0 l/m 0 min 0 min 0 W/m 9,0 km/h (2 Bft) 91,30 %
08.07.2018 23:44 19,9 C 18,9 C 18,9 C 69 % 1021,4 hPa 0,0 l/m 0 min 0 min 0 W/m 11,3 km/h (2 Bft) 93,62 %
08.07.2018 23:46 19,9 C 18,9 C 18,9 C 69 % 1021,3 hPa 0,0 l/m 0 min 0 min 0 W/m 6,8 km/h (2 Bft) 95,74 %
08.07.2018 23:48 19,8 C 18,3 C 18,9 C 70 % 1021,3 hPa 0,0 l/m 0 min 0 min 0 W/m 4,5 km/h (1 Bft) 97,92 %
08.07.2018 23:50 19,8 C 18,3 C 18,3 C 70 % 1021,3 hPa 0,0 l/m 0 min 0 min 0 W/m 9,0 km/h (2 Bft) 95,74 %
08.07.2018 23:52 19,8 C 18,3 C 18,3 C 70 % 1021,3 hPa 0,0 l/m 0 min 0 min 0 W/m 13,5 km/h (3 Bft) 95,74 %
08.07.2018 23:54 19,8 C 18,3 C 18,3 C 70 % 1021,3 hPa 0,0 l/m 0 min 0 min 0 W/m 6,8 km/h (2 Bft) 97,87 %
08.07.2018 23:56 19,7 C 18,3 C 18,3 C 70 % 1021,3 hPa 0,0 l/m 0 min 0 min 0 W/m 4,5 km/h (1 Bft) 97,92 %
08.07.2018 23:58 19,7 C 18,3 C 18,3 C 70 % 1021,4 hPa 0,0 l/m 0 min 0 min 0 W/m 11,3 km/h (2 Bft) 97,87 %
_ Min-Zeit 06:08 03:54 05:10 17:30 20:42 - - - - 00:44 09:52
Minimum _ 13,1 C 12,2 C 12,8 C 47 % 1020,2 hPa - - - - 0,0 km/h (0 Bft) 89,36 %
_ Max-Zeit 17:22 12:28 16:58 07:08 07:42 00:00 12:08 00:00 14:02 12:36 01:50
Maximum _ 27,1 C 33,9 C 25,0 C 89 % 1022,9 hPa 0,0 l/m 4 min 0 min 1115 W/m 22,5 km/h
NW (4 Bft)
100,00 %
Durchschnitt _ 20,3 C 20,8 C 19,0 C 66 % 1021,6 hPa #0,0 l/m #11:22 h #0 min. 479 W/m 8,0 km/h (2 Bft) 97,38 %
© 2018 W. Hausmann